GEFSNGP_prec_meanprecacc_024.txt.gz
Total_Precipitation_Accumulation
0.17 0.24 0.40 0.34 0.20 0.18 0.30 0.21 0.16 0.05 0.05 0.07 0.09 0.14 0.16 0.14 0.10 0.06 0.04 0.04 0.04 0.04 0.03 0.03 0.03 0.05 0.06 0.08 0.12 0.15 0.16 0.14 0.12 0.11 0.11 0.10 0.08 0.06 0.05 0.03 0.02 0.01 0.01 0.01
0.27 0.25 0.36 0.29 0.14 0.12 0.12 0.09 0.08 0.07 0.08 0.09 0.13 0.18 0.22 0.19 0.12 0.06 0.04 0.03 0.03 0.02 0.02 0.03 0.03 0.05 0.08 0.12 0.19 0.23 0.24 0.19 0.14 0.11 0.09 0.07 0.06 0.05 0.04 0.03 0.02 0.02 0.02 0.01
0.45 0.23 0.27 0.23 0.12 0.12 0.10 0.07 0.07 0.09 0.09 0.11 0.18 0.22 0.20 0.15 0.09 0.05 0.03 0.03 0.02 0.01 0.01 0.01 0.03 0.09 0.15 0.20 0.27 0.27 0.28 0.24 0.15 0.10 0.08 0.07 0.06 0.07 0.07 0.07 0.06 0.05 0.04 0.04
0.55 0.36 0.35 0.22 0.16 0.14 0.11 0.07 0.05 0.06 0.05 0.07 0.13 0.14 0.12 0.09 0.07 0.04 0.02 0.02 0.02 0.02 0.02 0.02 0.04 0.10 0.16 0.20 0.27 0.27 0.24 0.20 0.15 0.15 0.16 0.17 0.17 0.17 0.15 0.12 0.11 0.10 0.08 0.06
0.34 0.27 0.15 0.08 0.09 0.11 0.11 0.07 0.03 0.03 0.03 0.03 0.05 0.11 0.15 0.12 0.08 0.06 0.03 0.02 0.01 0.02 0.02 0.03 0.05 0.09 0.15 0.22 0.26 0.27 0.27 0.28 0.29 0.32 0.33 0.33 0.34 0.31 0.26 0.20 0.15 0.10 0.06 0.03
0.16 0.15 0.07 0.03 0.02 0.03 0.03 0.03 0.01 0.01 0.01 0.01 0.03 0.07 0.13 0.15 0.12 0.10 0.08 0.06 0.05 0.04 0.05 0.08 0.10 0.14 0.24 0.35 0.42 0.45 0.45 0.46 0.47 0.48 0.48 0.41 0.35 0.26 0.18 0.11 0.07 0.04 0.02 0.01
0.08 0.08 0.01 0.00 0.00 0.00 0.01 0.01 0.00 0.00 0.01 0.01 0.01 0.03 0.05 0.10 0.14 0.14 0.15 0.16 0.17 0.17 0.20 0.21 0.23 0.30 0.42 0.49 0.54 0.54 0.51 0.47 0.43 0.36 0.29 0.22 0.15 0.09 0.04 0.02 0.01 0.00 0.00 0.00
0.02 0.03 0.01 0.00 0.00 0.00 0.00 0.00 0.00 0.00 0.01 0.01 0.01 0.01 0.02 0.03 0.07 0.12 0.15 0.21 0.28 0.33 0.36 0.36 0.37 0.42 0.47 0.46 0.44 0.41 0.36 0.30 0.21 0.14 0.08 0.04 0.02 0.01 0.01 0.00 0.00 0.00 0.00 0.00
0.01 0.01 0.00 0.00 0.00 0.00 0.00 0.00 0.00 0.00 0.01 0.01 0.01 0.01 0.01 0.01 0.02 0.04 0.06 0.09 0.13 0.19 0.23 0.23 0.22 0.23 0.24 0.22 0.17 0.14 0.10 0.07 0.05 0.03 0.01 0.00 0.00 0.00 0.00 0.00 0.00 0.00 0.00 0.00
0.00 0.00 0.00 0.00 0.00 0.00 0.00 0.00 0.00 0.00 0.01 0.01 0.01 0.01 0.02 0.01 0.01 0.01 0.01 0.02 0.03 0.04 0.05 0.05 0.05 0.05 0.05 0.04 0.02 0.01 0.01 0.00 0.00 0.00 0.00 0.00 0.00 0.00 0.00 0.00 0.00 0.00 0.00 0.00
0.00 0.00 0.00 0.00 0.00 0.00 0.00 0.00 0.00 0.00 0.00 0.00 0.00 0.01 0.01 0.01 0.00 0.00 0.00 0.00 0.00 0.01 0.01 0.01 0.01 0.00 0.00 0.00 0.00 0.00 0.00 0.00 0.00 0.00 0.00 0.00 0.00 0.00 0.00 0.00 0.00 0.00 0.00 0.00
0.00 0.00 0.00 0.00 0.00 0.00 0.00 0.00 0.00 0.00 0.00 0.00 0.00 0.01 0.00 0.00 0.00 0.00 0.00 0.00 0.00 0.00 0.00 0.00 0.00 0.00 0.00 0.00 0.00 0.00 0.00 0.00 0.00 0.00 0.00 0.00 0.00 0.00 0.00 0.00 0.00 0.00 0.00 0.00
0.00 0.00 0.00 0.00 0.00 0.00 0.00 0.00 0.00 0.00 0.00 0.00 0.00 0.00 0.00 0.00 0.00 0.00 0.01 0.01 0.01 0.01 0.01 0.00 0.00 0.00 0.00 0.00 0.00 0.00 0.00 0.00 0.00 0.00 0.00 0.00 0.00 0.00 0.00 0.00 0.00 0.00 0.00 0.00
0.00 0.00 0.00 0.00 0.00 0.00 0.00 0.00 0.00 0.00 0.00 0.00 0.00 0.00 0.00 0.00 0.00 0.01 0.01 0.01 0.01 0.00 0.00 0.00 0.00 0.00 0.00 0.00 0.00 0.00 0.00 0.00 0.00 0.00 0.00 0.00 0.00 0.00 0.00 0.00 0.00 0.00 0.00 0.00
0.00 0.00 0.00 0.00 0.00 0.00 0.00 0.00 0.00 0.00 0.00 0.00 0.00 0.00 0.00 0.00 0.00 0.01 0.01 0.00 0.00 0.00 0.00 0.00 0.00 0.00 0.00 0.00 0.00 0.00 0.00 0.00 0.00 0.00 0.00 0.00 0.00 0.00 0.00 0.00 0.00 0.00 0.00 0.00
0.00 0.00 0.00 0.00 0.00 0.00 0.00 0.00 0.00 0.00 0.00 0.00 0.00 0.00 0.00 0.00 0.00 0.00 0.00 0.00 0.00 0.00 0.00 0.00 0.00 0.00 0.00 0.00 0.00 0.00 0.00 0.00 0.00 0.00 0.00 0.00 0.00 0.00 0.00 0.00 0.00 0.00 0.00 0.00
0.00 0.00 0.00 0.00 0.00 0.00 0.00 0.00 0.00 0.01 0.01 0.00 0.00 0.00 0.00 0.00 0.00 0.00 0.00 0.00 0.00 0.00 0.00 0.00 0.00 0.00 0.00 0.00 0.00 0.00 0.00 0.00 0.00 0.00 0.00 0.00 0.00 0.00 0.00 0.00 0.00 0.00 0.00 0.00
0.00 0.00 0.00 0.00 0.00 0.00 0.00 0.00 0.00 0.01 0.01 0.01 0.00 0.00 0.00 0.00 0.00 0.00 0.00 0.00 0.00 0.00 0.00 0.00 0.00 0.00 0.00 0.00 0.00 0.00 0.00 0.00 0.00 0.00 0.00 0.00 0.00 0.00 0.00 0.00 0.00 0.00 0.00 0.00
0.00 0.00 0.00 0.00 0.00 0.00 0.00 0.00 0.00 0.01 0.01 0.00 0.00 0.00 0.00 0.00 0.00 0.00 0.00 0.00 0.00 0.00 0.00 0.00 0.00 0.00 0.00 0.00 0.00 0.00 0.00 0.00 0.00 0.00 0.00 0.00 0.00 0.00 0.00 0.00 0.00 0.00 0.00 0.00
0.00 0.01 0.01 0.00 0.01 0.01 0.01 0.01 0.01 0.02 0.02 0.01 0.00 0.00 0.00 0.00 0.00 0.00 0.00 0.00 0.00 0.00 0.00 0.00 0.00 0.00 0.00 0.00 0.00 0.00 0.00 0.00 0.00 0.00 0.00 0.00 0.00 0.00 0.00 0.00 0.00 0.00 0.00 0.00
0.01 0.02 0.02 0.03 0.03 0.03 0.03 0.03 0.03 0.03 0.03 0.02 0.01 0.00 0.00 0.00 0.00 0.00 0.00 0.00 0.00 0.00 0.00 0.00 0.00 0.00 0.00 0.00 0.00 0.00 0.00 0.00 0.00 0.00 0.00 0.00 0.00 0.00 0.00 0.00 0.00 0.00 0.00 0.00
0.01 0.02 0.03 0.04 0.05 0.06 0.05 0.04 0.03 0.03 0.03 0.02 0.01 0.01 0.00 0.00 0.00 0.00 0.00 0.00 0.00 0.00 0.00 0.00 0.00 0.00 0.00 0.00 0.00 0.00 0.00 0.00 0.00 0.00 0.00 0.00 0.00 0.00 0.00 0.00 0.00 0.00 0.00 0.00
0.01 0.01 0.01 0.02 0.02 0.03 0.03 0.03 0.03 0.03 0.02 0.02 0.01 0.01 0.00 0.00 0.00 0.00 0.00 0.00 0.00 0.00 0.00 0.00 0.00 0.00 0.00 0.00 0.00 0.00 0.00 0.00 0.00 0.00 0.00 0.00 0.00 0.00 0.00 0.00 0.00 0.00 0.00 0.00
0.00 0.00 0.00 0.01 0.01 0.01 0.01 0.01 0.01 0.02 0.02 0.01 0.01 0.00 0.00 0.00 0.00 0.00 0.00 0.00 0.00 0.00 0.00 0.00 0.00 0.00 0.00 0.00 0.00 0.00 0.00 0.00 0.00 0.00 0.00 0.00 0.00 0.00 0.00 0.00 0.00 0.00 0.00 0.00
0.00 0.00 0.00 0.00 0.00 0.00 0.00 0.00 0.01 0.01 0.01 0.01 0.01 0.00 0.00 0.00 0.00 0.00 0.00 0.00 0.00 0.00 0.00 0.00 0.00 0.00 0.00 0.00 0.00 0.00 0.00 0.00 0.00 0.00 0.00 0.00 0.00 0.00 0.00 0.00 0.00 0.00 0.00 0.00
0.00 0.00 0.00 0.00 0.00 0.00 0.00 0.00 0.00 0.01 0.01 0.01 0.01 0.01 0.01 0.00 0.00 0.00 0.00 0.00 0.00 0.00 0.00 0.00 0.00 0.00 0.00 0.00 0.00 0.00 0.00 0.00 0.00 0.00 0.00 0.00 0.00 0.00 0.00 0.00 0.00 0.00 0.00 0.00
0.00 0.00 0.00 0.00 0.00 0.00 0.00 0.00 0.00 0.00 0.01 0.01 0.01 0.00 0.00 0.00 0.00 0.00 0.00 0.00 0.00 0.00 0.00 0.00 0.00 0.00 0.00 0.00 0.00 0.00 0.00 0.00 0.00 0.00 0.00 0.00 0.00 0.00 0.00 0.00 0.00 0.00 0.00 0.00

GEFSNGP_prec_meanprecacc_030.txt.gz
Total_Precipitation_Accumulation
0.17 0.24 0.40 0.34 0.20 0.18 0.30 0.21 0.16 0.05 0.05 0.07 0.10 0.14 0.16 0.14 0.10 0.06 0.04 0.04 0.04 0.04 0.04 0.05 0.05 0.07 0.08 0.10 0.13 0.17 0.17 0.16 0.14 0.14 0.15 0.15 0.13 0.10 0.08 0.06 0.04 0.03 0.03 0.03
0.27 0.25 0.36 0.29 0.14 0.12 0.12 0.09 0.08 0.07 0.08 0.09 0.13 0.18 0.22 0.19 0.12 0.06 0.04 0.03 0.03 0.03 0.03 0.03 0.04 0.07 0.10 0.14 0.21 0.25 0.26 0.21 0.17 0.16 0.15 0.14 0.12 0.10 0.08 0.06 0.05 0.05 0.05 0.05
0.45 0.23 0.27 0.23 0.12 0.12 0.10 0.07 0.07 0.09 0.09 0.11 0.18 0.22 0.20 0.15 0.09 0.05 0.03 0.03 0.02 0.02 0.01 0.02 0.04 0.11 0.18 0.23 0.29 0.30 0.33 0.30 0.23 0.22 0.20 0.16 0.14 0.15 0.16 0.15 0.14 0.13 0.12 0.12
0.55 0.36 0.35 0.22 0.16 0.14 0.11 0.07 0.05 0.06 0.05 0.07 0.13 0.14 0.12 0.09 0.07 0.04 0.02 0.02 0.02 0.03 0.02 0.03 0.06 0.14 0.21 0.27 0.38 0.39 0.38 0.37 0.36 0.36 0.36 0.37 0.36 0.36 0.35 0.32 0.29 0.28 0.27 0.26
0.35 0.27 0.16 0.08 0.09 0.11 0.11 0.07 0.03 0.03 0.03 0.03 0.05 0.11 0.15 0.12 0.08 0.06 0.03 0.02 0.01 0.02 0.03 0.03 0.06 0.12 0.20 0.32 0.45 0.53 0.56 0.55 0.56 0.58 0.61 0.64 0.65 0.61 0.57 0.53 0.48 0.42 0.36 0.29
0.19 0.16 0.07 0.03 0.02 0.03 0.03 0.03 0.01 0.01 0.01 0.01 0.03 0.07 0.13 0.15 0.12 0.10 0.08 0.06 0.05 0.04 0.06 0.08 0.11 0.17 0.29 0.45 0.58 0.66 0.67 0.69 0.72 0.74 0.76 0.71 0.69 0.63 0.52 0.43 0.36 0.32 0.27 0.22
0.12 0.10 0.01 0.00 0.00 0.00 0.01 0.01 0.00 0.00 0.01 0.01 0.01 0.03 0.05 0.10 0.14 0.14 0.15 0.16 0.17 0.17 0.20 0.22 0.25 0.33 0.47 0.57 0.65 0.67 0.66 0.66 0.66 0.61 0.56 0.49 0.44 0.39 0.31 0.24 0.18 0.13 0.10 0.07
0.03 0.04 0.01 0.00 0.00 0.00 0.00 0.00 0.00 0.00 0.01 0.01 0.01 0.01 0.02 0.03 0.07 0.12 0.15 0.21 0.28 0.34 0.37 0.37 0.39 0.45 0.52 0.54 0.53 0.50 0.47 0.44 0.40 0.33 0.26 0.20 0.16 0.13 0.10 0.07 0.05 0.04 0.02 0.01
0.01 0.01 0.00 0.00 0.00 0.00 0.00 0.00 0.00 0.00 0.01 0.01 0.01 0.01 0.01 0.01 0.02 0.04 0.06 0.09 0.13 0.19 0.23 0.24 0.24 0.26 0.28 0.26 0.22 0.19 0.15 0.13 0.11 0.08 0.06 0.04 0.02 0.01 0.01 0.00 0.00 0.00 0.00 0.00
0.00 0.00 0.00 0.00 0.00 0.00 0.00 0.00 0.00 0.00 0.01 0.01 0.01 0.01 0.02 0.01 0.01 0.01 0.01 0.02 0.03 0.04 0.05 0.05 0.05 0.06 0.06 0.05 0.03 0.02 0.01 0.01 0.01 0.00 0.00 0.00 0.00 0.00 0.00 0.00 0.00 0.00 0.00 0.00
0.00 0.00 0.00 0.00 0.00 0.00 0.00 0.00 0.00 0.00 0.00 0.00 0.00 0.01 0.01 0.01 0.00 0.00 0.00 0.01 0.00 0.01 0.01 0.01 0.01 0.01 0.01 0.00 0.00 0.00 0.00 0.00 0.00 0.00 0.00 0.00 0.00 0.00 0.00 0.00 0.00 0.00 0.00 0.00
0.01 0.00 0.00 0.00 0.00 0.00 0.00 0.00 0.00 0.00 0.00 0.00 0.00 0.01 0.00 0.00 0.00 0.00 0.01 0.00 0.00 0.00 0.00 0.00 0.00 0.00 0.00 0.00 0.00 0.00 0.00 0.00 0.00 0.00 0.00 0.00 0.00 0.00 0.00 0.00 0.00 0.00 0.00 0.00
0.00 0.00 0.00 0.00 0.00 0.00 0.00 0.00 0.00 0.00 0.00 0.00 0.00 0.00 0.00 0.00 0.00 0.01 0.01 0.01 0.01 0.01 0.01 0.00 0.00 0.00 0.00 0.00 0.00 0.00 0.00 0.00 0.00 0.00 0.00 0.00 0.00 0.00 0.00 0.00 0.00 0.00 0.00 0.00
0.00 0.00 0.00 0.00 0.00 0.00 0.00 0.00 0.00 0.00 0.00 0.00 0.00 0.00 0.00 0.00 0.00 0.01 0.02 0.02 0.01 0.01 0.01 0.00 0.00 0.00 0.00 0.00 0.00 0.00 0.00 0.00 0.00 0.00 0.00 0.00 0.00 0.00 0.00 0.00 0.00 0.00 0.00 0.00
0.00 0.00 0.00 0.00 0.00 0.00 0.00 0.00 0.00 0.00 0.00 0.00 0.00 0.00 0.00 0.00 0.00 0.01 0.01 0.01 0.01 0.01 0.00 0.00 0.00 0.00 0.00 0.00 0.00 0.00 0.00 0.00 0.00 0.00 0.00 0.00 0.00 0.00 0.00 0.00 0.00 0.00 0.00 0.00
0.00 0.00 0.00 0.00 0.00 0.00 0.00 0.00 0.00 0.00 0.00 0.00 0.01 0.01 0.00 0.00 0.00 0.01 0.01 0.01 0.01 0.01 0.00 0.00 0.00 0.00 0.00 0.00 0.00 0.00 0.00 0.00 0.00 0.00 0.00 0.00 0.00 0.00 0.00 0.00 0.00 0.00 0.00 0.00
0.00 0.00 0.00 0.00 0.00 0.00 0.00 0.00 0.00 0.01 0.01 0.01 0.01 0.00 0.00 0.00 0.00 0.00 0.00 0.00 0.00 0.00 0.00 0.00 0.00 0.00 0.00 0.00 0.00 0.00 0.00 0.00 0.00 0.00 0.00 0.00 0.00 0.00 0.00 0.00 0.00 0.00 0.00 0.00
0.00 0.00 0.00 0.00 0.00 0.00 0.00 0.00 0.00 0.01 0.01 0.01 0.01 0.00 0.00 0.00 0.00 0.00 0.00 0.00 0.00 0.00 0.00 0.00 0.00 0.00 0.00 0.00 0.00 0.00 0.00 0.00 0.00 0.00 0.00 0.00 0.00 0.00 0.00 0.00 0.00 0.00 0.00 0.00
0.00 0.00 0.00 0.00 0.00 0.00 0.00 0.00 0.01 0.01 0.01 0.01 0.01 0.01 0.00 0.00 0.00 0.00 0.00 0.00 0.00 0.00 0.00 0.00 0.00 0.00 0.00 0.00 0.00 0.00 0.00 0.00 0.00 0.00 0.00 0.00 0.00 0.00 0.00 0.00 0.00 0.00 0.00 0.00
0.01 0.01 0.01 0.01 0.01 0.01 0.01 0.02 0.02 0.02 0.03 0.02 0.02 0.01 0.01 0.00 0.00 0.00 0.00 0.00 0.00 0.00 0.00 0.00 0.00 0.00 0.00 0.00 0.00 0.00 0.00 0.00 0.00 0.00 0.00 0.00 0.00 0.00 0.00 0.00 0.00 0.00 0.00 0.00
0.04 0.04 0.04 0.05 0.06 0.05 0.04 0.04 0.04 0.05 0.06 0.05 0.04 0.03 0.02 0.01 0.01 0.00 0.00 0.00 0.00 0.00 0.00 0.00 0.00 0.00 0.00 0.00 0.00 0.00 0.00 0.00 0.00 0.00 0.00 0.00 0.00 0.00 0.00 0.00 0.00 0.00 0.00 0.00
0.04 0.06 0.06 0.07 0.09 0.10 0.09 0.07 0.06 0.07 0.07 0.07 0.07 0.05 0.04 0.02 0.01 0.00 0.00 0.00 0.00 0.00 0.00 0.00 0.00 0.00 0.00 0.00 0.00 0.00 0.00 0.00 0.00 0.00 0.00 0.00 0.00 0.00 0.00 0.00 0.00 0.00 0.00 0.00
0.03 0.04 0.04 0.05 0.06 0.07 0.07 0.07 0.07 0.07 0.08 0.08 0.07 0.06 0.04 0.03 0.01 0.01 0.00 0.00 0.00 0.00 0.00 0.00 0.00 0.00 0.00 0.00 0.00 0.00 0.00 0.00 0.00 0.00 0.00 0.00 0.00 0.00 0.00 0.00 0.00 0.00 0.00 0.00
0.00 0.01 0.02 0.02 0.02 0.03 0.05 0.05 0.05 0.06 0.07 0.07 0.06 0.04 0.03 0.02 0.01 0.00 0.00 0.00 0.00 0.00 0.00 0.00 0.00 0.00 0.00 0.00 0.00 0.00 0.00 0.00 0.00 0.00 0.00 0.00 0.00 0.00 0.00 0.00 0.00 0.00 0.00 0.00
0.00 0.00 0.00 0.00 0.01 0.01 0.01 0.02 0.03 0.04 0.05 0.06 0.05 0.04 0.03 0.02 0.01 0.01 0.00 0.00 0.00 0.00 0.00 0.00 0.00 0.00 0.00 0.00 0.00 0.00 0.00 0.00 0.00 0.00 0.00 0.00 0.00 0.00 0.00 0.00 0.00 0.00 0.00 0.00
0.00 0.00 0.00 0.00 0.00 0.00 0.01 0.01 0.01 0.02 0.03 0.04 0.04 0.03 0.04 0.03 0.02 0.01 0.01 0.01 0.00 0.00 0.00 0.00 0.00 0.00 0.00 0.00 0.00 0.00 0.00 0.00 0.00 0.00 0.00 0.00 0.00 0.00 0.00 0.00 0.00 0.00 0.00 0.01
0.00 0.00 0.00 0.00 0.00 0.00 0.00 0.00 0.01 0.01 0.01 0.02 0.03 0.03 0.04 0.04 0.03 0.02 0.01 0.01 0.01 0.01 0.00 0.00 0.00 0.00 0.00 0.00 0.00 0.00 0.00 0.00 0.00 0.00 0.00 0.00 0.00 0.00 0.00 0.00 0.00 0.01 0.01 0.01

GEFSNGP_prec_meanprecacc_036.txt.gz
Total_Precipitation_Accumulation
0.17 0.24 0.40 0.34 0.20 0.18 0.30 0.21 0.16 0.05 0.05 0.07 0.10 0.14 0.16 0.14 0.10 0.06 0.04 0.04 0.04 0.04 0.04 0.05 0.05 0.07 0.08 0.10 0.14 0.17 0.18 0.17 0.16 0.16 0.17 0.16 0.15 0.12 0.09 0.07 0.05 0.04 0.04 0.04
0.27 0.25 0.36 0.29 0.14 0.12 0.12 0.09 0.08 0.07 0.08 0.09 0.13 0.18 0.22 0.19 0.12 0.06 0.04 0.03 0.03 0.03 0.03 0.03 0.04 0.07 0.10 0.14 0.21 0.25 0.26 0.22 0.18 0.18 0.17 0.16 0.14 0.12 0.09 0.07 0.06 0.06 0.06 0.07
0.45 0.23 0.27 0.23 0.12 0.12 0.10 0.07 0.07 0.09 0.09 0.11 0.18 0.22 0.20 0.15 0.09 0.05 0.03 0.03 0.02 0.02 0.01 0.02 0.04 0.11 0.18 0.23 0.29 0.31 0.34 0.32 0.26 0.23 0.21 0.17 0.15 0.16 0.17 0.17 0.17 0.18 0.18 0.18
0.55 0.36 0.35 0.22 0.16 0.14 0.11 0.07 0.05 0.06 0.05 0.07 0.13 0.14 0.12 0.09 0.07 0.04 0.02 0.02 0.02 0.03 0.02 0.03 0.06 0.14 0.21 0.28 0.38 0.39 0.39 0.38 0.37 0.37 0.37 0.38 0.37 0.38 0.39 0.37 0.38 0.39 0.40 0.41
0.35 0.28 0.16 0.08 0.09 0.11 0.11 0.07 0.03 0.03 0.03 0.03 0.05 0.11 0.15 0.12 0.08 0.06 0.03 0.02 0.01 0.02 0.03 0.03 0.06 0.13 0.20 0.32 0.45 0.54 0.57 0.56 0.57 0.59 0.63 0.67 0.70 0.69 0.67 0.67 0.65 0.62 0.58 0.52
0.19 0.17 0.07 0.04 0.02 0.03 0.04 0.03 0.01 0.01 0.01 0.01 0.03 0.07 0.13 0.15 0.12 0.10 0.08 0.06 0.05 0.04 0.06 0.08 0.11 0.17 0.29 0.45 0.59 0.68 0.69 0.72 0.75 0.78 0.81 0.79 0.79 0.75 0.67 0.61 0.58 0.55 0.52 0.47
0.13 0.10 0.01 0.00 0.00 0.00 0.02 0.02 0.00 0.00 0.01 0.01 0.01 0.03 0.05 0.10 0.14 0.14 0.15 0.16 0.17 0.17 0.20 0.22 0.25 0.33 0.47 0.58 0.66 0.68 0.68 0.68 0.70 0.67 0.64 0.58 0.55 0.53 0.48 0.42 0.35 0.30 0.25 0.21
0.04 0.05 0.01 0.00 0.01 0.01 0.01 0.00 0.00 0.00 0.01 0.01 0.01 0.01 0.02 0.03 0.07 0.12 0.15 0.21 0.28 0.34 0.37 0.37 0.39 0.45 0.52 0.54 0.54 0.51 0.49 0.46 0.43 0.37 0.31 0.27 0.24 0.23 0.20 0.17 0.14 0.11 0.08 0.06
0.01 0.01 0.00 0.00 0.00 0.01 0.00 0.00 0.00 0.00 0.01 0.01 0.01 0.01 0.01 0.01 0.02 0.04 0.06 0.09 0.13 0.19 0.23 0.24 0.24 0.26 0.28 0.26 0.22 0.19 0.16 0.14 0.12 0.09 0.08 0.06 0.04 0.03 0.03 0.02 0.02 0.01 0.01 0.01
0.00 0.00 0.00 0.00 0.00 0.00 0.00 0.00 0.00 0.00 0.01 0.01 0.01 0.01 0.02 0.01 0.01 0.01 0.01 0.02 0.03 0.04 0.05 0.05 0.05 0.06 0.06 0.05 0.03 0.02 0.01 0.01 0.01 0.01 0.00 0.01 0.00 0.00 0.00 0.00 0.00 0.00 0.00 0.00
0.01 0.00 0.00 0.00 0.00 0.00 0.00 0.00 0.00 0.00 0.00 0.00 0.00 0.01 0.01 0.01 0.00 0.00 0.00 0.01 0.00 0.01 0.01 0.01 0.01 0.01 0.01 0.00 0.00 0.00 0.00 0.00 0.00 0.00 0.00 0.00 0.00 0.00 0.00 0.00 0.00 0.00 0.00 0.00
0.01 0.00 0.00 0.00 0.00 0.00 0.00 0.00 0.00 0.00 0.00 0.00 0.00 0.01 0.00 0.00 0.00 0.00 0.01 0.01 0.01 0.01 0.00 0.00 0.00 0.00 0.00 0.00 0.00 0.00 0.00 0.00 0.00 0.00 0.00 0.00 0.00 0.00 0.00 0.00 0.00 0.00 0.00 0.00
0.00 0.00 0.00 0.00 0.00 0.00 0.00 0.00 0.00 0.00 0.00 0.00 0.00 0.00 0.00 0.00 0.00 0.01 0.02 0.02 0.01 0.01 0.01 0.01 0.00 0.00 0.00 0.00 0.00 0.00 0.00 0.00 0.00 0.00 0.00 0.00 0.00 0.00 0.00 0.00 0.00 0.00 0.00 0.00
0.00 0.00 0.00 0.00 0.00 0.00 0.00 0.00 0.00 0.00 0.00 0.00 0.00 0.00 0.00 0.00 0.00 0.01 0.02 0.03 0.02 0.01 0.01 0.00 0.00 0.00 0.00 0.00 0.00 0.00 0.00 0.00 0.00 0.00 0.00 0.00 0.00 0.00 0.00 0.00 0.00 0.00 0.00 0.00
0.00 0.00 0.00 0.00 0.00 0.00 0.00 0.00 0.00 0.00 0.00 0.00 0.00 0.00 0.00 0.00 0.00 0.01 0.02 0.02 0.02 0.01 0.01 0.00 0.00 0.00 0.00 0.00 0.00 0.00 0.00 0.00 0.00 0.00 0.00 0.00 0.00 0.00 0.00 0.00 0.00 0.00 0.00 0.00
0.00 0.00 0.00 0.00 0.00 0.00 0.00 0.00 0.00 0.00 0.00 0.00 0.01 0.01 0.00 0.00 0.00 0.01 0.01 0.01 0.02 0.02 0.01 0.00 0.00 0.00 0.00 0.00 0.00 0.00 0.00 0.00 0.00 0.00 0.00 0.00 0.00 0.00 0.00 0.00 0.00 0.00 0.00 0.00
0.00 0.00 0.00 0.00 0.00 0.00 0.00 0.00 0.00 0.01 0.01 0.01 0.01 0.00 0.00 0.00 0.00 0.00 0.00 0.01 0.01 0.01 0.01 0.00 0.00 0.00 0.00 0.00 0.00 0.00 0.00 0.00 0.00 0.00 0.00 0.00 0.00 0.00 0.00 0.00 0.00 0.00 0.00 0.00
0.00 0.00 0.00 0.00 0.00 0.00 0.00 0.00 0.00 0.01 0.01 0.01 0.01 0.00 0.00 0.00 0.00 0.00 0.00 0.00 0.01 0.01 0.01 0.00 0.00 0.00 0.00 0.00 0.00 0.00 0.00 0.00 0.00 0.00 0.00 0.00 0.00 0.00 0.00 0.00 0.00 0.00 0.00 0.00
0.00 0.00 0.00 0.00 0.00 0.00 0.00 0.01 0.01 0.01 0.01 0.01 0.01 0.01 0.00 0.00 0.00 0.00 0.00 0.00 0.00 0.01 0.01 0.01 0.00 0.00 0.00 0.00 0.00 0.00 0.00 0.00 0.00 0.00 0.00 0.00 0.00 0.00 0.00 0.00 0.00 0.00 0.00 0.00
0.01 0.02 0.02 0.02 0.02 0.02 0.02 0.02 0.02 0.03 0.03 0.03 0.02 0.02 0.01 0.01 0.01 0.01 0.00 0.00 0.01 0.01 0.01 0.01 0.00 0.00 0.00 0.00 0.00 0.00 0.00 0.00 0.00 0.00 0.00 0.00 0.00 0.00 0.00 0.00 0.00 0.00 0.00 0.00
0.04 0.05 0.05 0.06 0.07 0.06 0.05 0.05 0.05 0.05 0.06 0.06 0.05 0.04 0.03 0.03 0.02 0.01 0.01 0.01 0.01 0.01 0.01 0.01 0.00 0.00 0.00 0.00 0.00 0.00 0.00 0.00 0.00 0.00 0.00 0.00 0.00 0.00 0.00 0.00 0.00 0.00 0.00 0.00
0.05 0.07 0.08 0.09 0.10 0.11 0.10 0.08 0.07 0.08 0.08 0.08 0.08 0.07 0.05 0.05 0.03 0.03 0.02 0.02 0.01 0.01 0.01 0.01 0.00 0.00 0.00 0.00 0.00 0.00 0.00 0.00 0.00 0.00 0.00 0.00 0.00 0.00 0.00 0.00 0.00 0.00 0.00 0.00
0.04 0.05 0.06 0.07 0.08 0.08 0.08 0.08 0.08 0.08 0.09 0.09 0.09 0.08 0.07 0.06 0.05 0.04 0.03 0.03 0.02 0.01 0.01 0.01 0.00 0.00 0.00 0.00 0.00 0.00 0.00 0.00 0.00 0.00 0.00 0.00 0.00 0.00 0.00 0.00 0.00 0.00 0.00 0.00
0.00 0.01 0.02 0.03 0.03 0.04 0.05 0.06 0.07 0.08 0.09 0.09 0.08 0.07 0.06 0.05 0.05 0.04 0.03 0.03 0.02 0.02 0.01 0.01 0.00 0.00 0.00 0.00 0.00 0.00 0.00 0.00 0.00 0.00 0.00 0.00 0.00 0.00 0.00 0.00 0.00 0.00 0.00 0.00
0.00 0.00 0.00 0.00 0.01 0.01 0.02 0.02 0.03 0.05 0.07 0.08 0.07 0.06 0.06 0.05 0.05 0.05 0.04 0.03 0.02 0.02 0.02 0.01 0.01 0.00 0.00 0.00 0.00 0.00 0.00 0.00 0.00 0.00 0.00 0.00 0.00 0.00 0.00 0.00 0.00 0.00 0.00 0.00
0.00 0.00 0.00 0.00 0.00 0.00 0.01 0.01 0.01 0.02 0.04 0.05 0.06 0.06 0.07 0.07 0.06 0.05 0.05 0.04 0.03 0.03 0.02 0.02 0.01 0.01 0.00 0.00 0.00 0.00 0.00 0.00 0.00 0.00 0.00 0.00 0.00 0.00 0.00 0.00 0.00 0.00 0.01 0.01
0.00 0.00 0.00 0.00 0.00 0.00 0.00 0.00 0.01 0.01 0.02 0.02 0.04 0.06 0.06 0.07 0.06 0.05 0.04 0.04 0.04 0.04 0.03 0.02 0.01 0.01 0.01 0.01 0.00 0.00 0.00 0.00 0.00 0.00 0.00 0.00 0.00 0.00 0.00 0.00 0.00 0.01 0.01 0.01

GEFSNGP_prec_meanprecacc_042.txt.gz
Total_Precipitation_Accumulation
0.17 0.24 0.40 0.34 0.20 0.18 0.30 0.21 0.16 0.05 0.05 0.07 0.10 0.14 0.16 0.14 0.10 0.06 0.04 0.04 0.04 0.04 0.04 0.05 0.05 0.07 0.08 0.10 0.14 0.17 0.18 0.17 0.16 0.16 0.17 0.16 0.15 0.12 0.10 0.08 0.06 0.05 0.06 0.06
0.27 0.25 0.36 0.29 0.14 0.12 0.12 0.09 0.08 0.07 0.08 0.09 0.13 0.18 0.22 0.19 0.12 0.06 0.04 0.03 0.03 0.03 0.03 0.03 0.04 0.07 0.10 0.14 0.21 0.25 0.26 0.22 0.18 0.18 0.17 0.16 0.14 0.12 0.10 0.08 0.07 0.06 0.07 0.08
0.45 0.23 0.27 0.23 0.12 0.12 0.10 0.07 0.07 0.09 0.09 0.11 0.18 0.22 0.20 0.15 0.09 0.05 0.03 0.03 0.02 0.02 0.01 0.02 0.04 0.11 0.18 0.23 0.29 0.31 0.34 0.32 0.26 0.23 0.21 0.17 0.15 0.16 0.17 0.18 0.18 0.18 0.19 0.20
0.55 0.36 0.35 0.22 0.16 0.14 0.11 0.07 0.05 0.06 0.05 0.07 0.13 0.14 0.12 0.09 0.07 0.04 0.02 0.02 0.02 0.03 0.02 0.03 0.06 0.14 0.21 0.28 0.38 0.39 0.39 0.38 0.37 0.37 0.38 0.38 0.37 0.38 0.39 0.38 0.38 0.40 0.42 0.43
0.35 0.28 0.16 0.08 0.09 0.11 0.11 0.07 0.03 0.03 0.03 0.03 0.05 0.11 0.15 0.12 0.08 0.06 0.03 0.02 0.01 0.02 0.03 0.03 0.06 0.13 0.20 0.32 0.45 0.54 0.57 0.56 0.57 0.59 0.63 0.67 0.70 0.69 0.68 0.69 0.68 0.65 0.60 0.54
0.20 0.17 0.07 0.04 0.02 0.03 0.04 0.04 0.01 0.01 0.01 0.01 0.03 0.07 0.13 0.15 0.12 0.10 0.08 0.06 0.05 0.04 0.06 0.08 0.11 0.17 0.29 0.45 0.59 0.68 0.69 0.72 0.75 0.78 0.81 0.79 0.79 0.76 0.68 0.62 0.60 0.58 0.54 0.50
0.14 0.11 0.02 0.00 0.00 0.00 0.03 0.03 0.00 0.00 0.01 0.01 0.01 0.03 0.05 0.10 0.14 0.14 0.15 0.16 0.17 0.17 0.20 0.22 0.25 0.33 0.47 0.58 0.66 0.68 0.68 0.68 0.70 0.67 0.64 0.58 0.55 0.53 0.48 0.43 0.37 0.32 0.28 0.23
0.04 0.05 0.01 0.00 0.01 0.01 0.01 0.01 0.00 0.00 0.01 0.01 0.01 0.01 0.02 0.03 0.07 0.12 0.15 0.21 0.28 0.34 0.37 0.37 0.39 0.45 0.52 0.54 0.54 0.51 0.49 0.46 0.43 0.37 0.31 0.27 0.24 0.23 0.20 0.17 0.15 0.12 0.09 0.07
0.01 0.01 0.00 0.00 0.01 0.01 0.01 0.01 0.00 0.00 0.01 0.01 0.01 0.01 0.01 0.01 0.02 0.04 0.06 0.09 0.13 0.19 0.23 0.24 0.24 0.26 0.28 0.26 0.22 0.19 0.16 0.14 0.12 0.09 0.08 0.06 0.04 0.03 0.03 0.02 0.02 0.02 0.02 0.01
0.00 0.00 0.00 0.00 0.00 0.01 0.01 0.01 0.00 0.00 0.01 0.01 0.01 0.01 0.02 0.01 0.01 0.01 0.01 0.02 0.03 0.04 0.05 0.05 0.05 0.06 0.06 0.05 0.03 0.02 0.01 0.01 0.01 0.01 0.00 0.01 0.00 0.00 0.00 0.00 0.00 0.00 0.00 0.00
0.01 0.00 0.00 0.00 0.00 0.00 0.00 0.00 0.00 0.00 0.00 0.00 0.00 0.01 0.01 0.01 0.00 0.00 0.00 0.01 0.00 0.01 0.01 0.01 0.01 0.01 0.01 0.00 0.00 0.00 0.00 0.00 0.00 0.00 0.00 0.00 0.00 0.00 0.00 0.00 0.00 0.00 0.00 0.00
0.01 0.00 0.00 0.00 0.00 0.00 0.00 0.00 0.00 0.00 0.00 0.00 0.00 0.01 0.00 0.00 0.00 0.00 0.01 0.01 0.01 0.01 0.00 0.00 0.00 0.00 0.00 0.00 0.00 0.00 0.00 0.00 0.00 0.00 0.00 0.00 0.00 0.00 0.00 0.00 0.00 0.00 0.00 0.00
0.00 0.00 0.00 0.00 0.00 0.00 0.00 0.00 0.00 0.00 0.00 0.00 0.00 0.00 0.00 0.00 0.00 0.01 0.02 0.02 0.01 0.01 0.01 0.01 0.00 0.00 0.00 0.00 0.00 0.00 0.00 0.00 0.00 0.00 0.00 0.00 0.00 0.00 0.00 0.00 0.00 0.00 0.00 0.00
0.00 0.00 0.00 0.00 0.00 0.00 0.00 0.00 0.00 0.00 0.00 0.00 0.00 0.00 0.00 0.00 0.00 0.01 0.02 0.03 0.02 0.01 0.01 0.01 0.00 0.00 0.00 0.00 0.00 0.00 0.00 0.00 0.00 0.00 0.00 0.00 0.00 0.00 0.00 0.00 0.00 0.00 0.00 0.00
0.00 0.00 0.00 0.00 0.00 0.00 0.00 0.00 0.00 0.00 0.00 0.00 0.00 0.00 0.00 0.00 0.00 0.01 0.02 0.02 0.02 0.01 0.01 0.01 0.00 0.01 0.00 0.00 0.00 0.00 0.00 0.00 0.00 0.00 0.00 0.00 0.00 0.00 0.00 0.00 0.00 0.00 0.00 0.00
0.00 0.00 0.00 0.00 0.00 0.00 0.00 0.00 0.00 0.00 0.00 0.00 0.01 0.01 0.00 0.00 0.00 0.01 0.01 0.01 0.02 0.02 0.01 0.01 0.01 0.01 0.00 0.00 0.00 0.00 0.00 0.00 0.00 0.00 0.00 0.00 0.00 0.00 0.00 0.00 0.00 0.00 0.00 0.00
0.00 0.00 0.00 0.00 0.00 0.00 0.00 0.00 0.00 0.01 0.01 0.01 0.01 0.00 0.00 0.00 0.00 0.00 0.01 0.01 0.01 0.01 0.02 0.02 0.02 0.01 0.01 0.00 0.00 0.00 0.00 0.00 0.00 0.00 0.00 0.00 0.00 0.00 0.00 0.00 0.00 0.00 0.00 0.00
0.01 0.00 0.00 0.00 0.00 0.00 0.00 0.00 0.01 0.01 0.01 0.01 0.01 0.00 0.00 0.00 0.00 0.00 0.00 0.00 0.01 0.01 0.01 0.01 0.01 0.01 0.01 0.00 0.00 0.00 0.00 0.00 0.00 0.00 0.00 0.00 0.00 0.00 0.00 0.00 0.00 0.00 0.00 0.00
0.02 0.01 0.01 0.00 0.00 0.00 0.00 0.01 0.01 0.01 0.01 0.01 0.01 0.01 0.00 0.00 0.00 0.00 0.00 0.00 0.01 0.01 0.02 0.02 0.03 0.02 0.01 0.01 0.01 0.00 0.00 0.00 0.00 0.00 0.00 0.00 0.00 0.00 0.00 0.00 0.00 0.00 0.00 0.00
0.03 0.02 0.02 0.02 0.02 0.02 0.02 0.02 0.02 0.03 0.03 0.03 0.02 0.02 0.01 0.01 0.01 0.01 0.01 0.01 0.01 0.02 0.02 0.03 0.03 0.02 0.01 0.01 0.01 0.01 0.00 0.00 0.00 0.00 0.00 0.00 0.00 0.00 0.00 0.00 0.00 0.00 0.00 0.00
0.05 0.05 0.05 0.06 0.07 0.07 0.06 0.05 0.05 0.06 0.06 0.06 0.05 0.04 0.04 0.03 0.02 0.02 0.01 0.02 0.02 0.03 0.03 0.03 0.03 0.02 0.02 0.02 0.02 0.01 0.01 0.00 0.00 0.00 0.00 0.00 0.00 0.00 0.00 0.00 0.00 0.00 0.00 0.00
0.05 0.07 0.08 0.09 0.11 0.12 0.10 0.09 0.08 0.08 0.08 0.09 0.08 0.07 0.06 0.05 0.04 0.03 0.03 0.03 0.03 0.04 0.03 0.03 0.03 0.03 0.03 0.03 0.03 0.01 0.01 0.00 0.00 0.00 0.00 0.00 0.00 0.00 0.00 0.00 0.00 0.00 0.00 0.00
0.04 0.05 0.06 0.07 0.08 0.08 0.09 0.08 0.08 0.09 0.10 0.10 0.09 0.09 0.08 0.07 0.06 0.05 0.05 0.05 0.04 0.04 0.03 0.03 0.04 0.05 0.05 0.04 0.02 0.01 0.01 0.00 0.00 0.00 0.00 0.00 0.00 0.00 0.00 0.00 0.00 0.00 0.00 0.00
0.01 0.01 0.02 0.03 0.03 0.04 0.06 0.07 0.07 0.08 0.09 0.10 0.09 0.08 0.07 0.06 0.06 0.05 0.05 0.05 0.06 0.06 0.05 0.05 0.06 0.05 0.04 0.03 0.02 0.01 0.01 0.01 0.00 0.00 0.00 0.00 0.00 0.00 0.00 0.00 0.00 0.00 0.00 0.00
0.00 0.00 0.00 0.01 0.01 0.01 0.02 0.02 0.04 0.06 0.08 0.08 0.08 0.07 0.07 0.07 0.07 0.07 0.06 0.05 0.05 0.06 0.06 0.07 0.06 0.05 0.04 0.03 0.03 0.02 0.01 0.01 0.01 0.00 0.00 0.00 0.00 0.00 0.00 0.00 0.00 0.00 0.00 0.00
0.00 0.00 0.00 0.00 0.00 0.00 0.01 0.01 0.01 0.02 0.04 0.06 0.06 0.07 0.08 0.09 0.08 0.08 0.07 0.07 0.06 0.07 0.06 0.06 0.05 0.04 0.03 0.03 0.02 0.02 0.01 0.01 0.01 0.00 0.00 0.00 0.00 0.00 0.00 0.00 0.00 0.00 0.01 0.01
0.00 0.00 0.00 0.00 0.00 0.00 0.00 0.00 0.01 0.01 0.02 0.03 0.04 0.06 0.07 0.08 0.08 0.07 0.07 0.07 0.07 0.07 0.06 0.05 0.04 0.04 0.03 0.03 0.02 0.02 0.01 0.01 0.00 0.00 0.00 0.00 0.00 0.00 0.00 0.00 0.00 0.01 0.01 0.01

GEFSNGP_prec_meanprecacc_048.txt.gz
Total_Precipitation_Accumulation
0.18 0.24 0.40 0.34 0.20 0.18 0.30 0.21 0.16 0.06 0.05 0.07 0.10 0.14 0.16 0.14 0.10 0.06 0.04 0.04 0.04 0.04 0.04 0.05 0.05 0.07 0.08 0.10 0.14 0.17 0.18 0.17 0.16 0.16 0.17 0.16 0.15 0.12 0.10 0.08 0.06 0.05 0.06 0.06
0.27 0.25 0.36 0.29 0.14 0.12 0.12 0.09 0.08 0.07 0.08 0.09 0.13 0.18 0.22 0.19 0.12 0.06 0.04 0.03 0.03 0.03 0.03 0.03 0.04 0.07 0.10 0.14 0.21 0.25 0.26 0.22 0.18 0.18 0.17 0.16 0.14 0.12 0.10 0.08 0.07 0.06 0.07 0.08
0.45 0.23 0.27 0.23 0.12 0.12 0.10 0.07 0.07 0.09 0.09 0.11 0.18 0.22 0.20 0.15 0.09 0.05 0.03 0.03 0.02 0.02 0.01 0.02 0.04 0.11 0.18 0.23 0.29 0.31 0.34 0.32 0.26 0.23 0.21 0.17 0.15 0.16 0.17 0.18 0.18 0.18 0.19 0.20
0.55 0.36 0.35 0.22 0.16 0.14 0.11 0.07 0.05 0.06 0.05 0.07 0.13 0.14 0.12 0.09 0.07 0.04 0.02 0.02 0.02 0.03 0.02 0.03 0.06 0.14 0.21 0.28 0.38 0.39 0.39 0.38 0.37 0.37 0.38 0.38 0.37 0.38 0.39 0.38 0.38 0.40 0.42 0.43
0.36 0.28 0.16 0.08 0.09 0.11 0.11 0.07 0.03 0.03 0.03 0.03 0.05 0.11 0.15 0.12 0.08 0.06 0.03 0.02 0.01 0.02 0.03 0.03 0.06 0.13 0.20 0.32 0.45 0.54 0.57 0.56 0.57 0.59 0.63 0.67 0.70 0.69 0.68 0.69 0.68 0.65 0.60 0.54
0.21 0.17 0.07 0.04 0.02 0.03 0.04 0.04 0.01 0.01 0.01 0.01 0.03 0.07 0.13 0.15 0.12 0.10 0.08 0.06 0.05 0.04 0.06 0.08 0.11 0.17 0.29 0.45 0.59 0.68 0.69 0.72 0.75 0.78 0.81 0.79 0.79 0.76 0.68 0.62 0.60 0.58 0.54 0.50
0.14 0.12 0.02 0.00 0.00 0.00 0.03 0.03 0.00 0.00 0.01 0.01 0.01 0.03 0.05 0.10 0.14 0.14 0.15 0.16 0.17 0.17 0.20 0.22 0.25 0.33 0.47 0.58 0.66 0.68 0.68 0.68 0.70 0.67 0.64 0.58 0.55 0.53 0.48 0.43 0.37 0.32 0.28 0.23
0.05 0.05 0.01 0.00 0.01 0.01 0.01 0.01 0.00 0.00 0.01 0.01 0.01 0.01 0.02 0.03 0.07 0.12 0.15 0.21 0.28 0.34 0.37 0.37 0.39 0.45 0.52 0.54 0.54 0.51 0.49 0.46 0.43 0.37 0.31 0.27 0.24 0.23 0.20 0.17 0.15 0.12 0.09 0.07
0.01 0.01 0.00 0.00 0.01 0.01 0.01 0.01 0.01 0.01 0.01 0.01 0.02 0.01 0.01 0.01 0.02 0.04 0.06 0.09 0.13 0.19 0.23 0.24 0.24 0.26 0.28 0.26 0.22 0.19 0.16 0.14 0.12 0.09 0.08 0.06 0.04 0.03 0.03 0.02 0.02 0.02 0.02 0.01
0.00 0.00 0.00 0.00 0.01 0.01 0.01 0.01 0.01 0.01 0.02 0.02 0.02 0.02 0.02 0.01 0.01 0.01 0.01 0.02 0.03 0.04 0.05 0.05 0.05 0.06 0.06 0.05 0.03 0.02 0.01 0.01 0.01 0.01 0.00 0.01 0.00 0.00 0.00 0.00 0.00 0.00 0.00 0.00
0.01 0.00 0.00 0.00 0.01 0.01 0.01 0.01 0.01 0.01 0.01 0.01 0.01 0.02 0.01 0.01 0.01 0.00 0.01 0.01 0.00 0.01 0.01 0.01 0.01 0.01 0.01 0.00 0.00 0.00 0.00 0.00 0.00 0.00 0.00 0.00 0.00 0.00 0.00 0.00 0.00 0.00 0.00 0.00
0.02 0.01 0.00 0.00 0.00 0.00 0.00 0.00 0.00 0.00 0.00 0.00 0.00 0.01 0.00 0.00 0.00 0.01 0.01 0.01 0.01 0.01 0.00 0.00 0.00 0.00 0.00 0.00 0.00 0.00 0.00 0.00 0.00 0.00 0.00 0.00 0.00 0.00 0.00 0.00 0.00 0.00 0.00 0.00
0.01 0.01 0.00 0.00 0.00 0.00 0.00 0.00 0.00 0.00 0.00 0.00 0.00 0.00 0.00 0.00 0.01 0.01 0.02 0.02 0.01 0.01 0.01 0.01 0.00 0.00 0.00 0.00 0.00 0.00 0.00 0.00 0.00 0.00 0.00 0.00 0.00 0.00 0.00 0.00 0.00 0.00 0.00 0.00
0.01 0.01 0.01 0.01 0.00 0.00 0.00 0.00 0.00 0.00 0.00 0.00 0.00 0.00 0.00 0.00 0.00 0.01 0.02 0.03 0.02 0.01 0.01 0.01 0.00 0.00 0.00 0.00 0.00 0.00 0.00 0.00 0.00 0.00 0.00 0.00 0.00 0.00 0.00 0.00 0.00 0.00 0.00 0.00
0.01 0.01 0.02 0.02 0.01 0.00 0.00 0.00 0.00 0.00 0.00 0.00 0.00 0.00 0.00 0.00 0.00 0.01 0.02 0.02 0.02 0.02 0.01 0.01 0.01 0.01 0.01 0.01 0.01 0.00 0.00 0.00 0.00 0.00 0.00 0.00 0.00 0.00 0.00 0.00 0.00 0.00 0.00 0.00
0.01 0.01 0.01 0.02 0.02 0.01 0.01 0.00 0.00 0.01 0.00 0.00 0.01 0.01 0.00 0.00 0.00 0.01 0.01 0.01 0.02 0.02 0.02 0.02 0.02 0.01 0.01 0.01 0.01 0.01 0.01 0.01 0.00 0.00 0.00 0.00 0.00 0.00 0.00 0.00 0.00 0.00 0.00 0.00
0.03 0.03 0.02 0.02 0.02 0.01 0.00 0.00 0.01 0.01 0.01 0.01 0.01 0.00 0.00 0.00 0.00 0.00 0.01 0.01 0.01 0.01 0.02 0.02 0.02 0.02 0.02 0.01 0.01 0.01 0.01 0.01 0.01 0.00 0.00 0.00 0.00 0.00 0.00 0.00 0.00 0.00 0.00 0.00
0.05 0.05 0.04 0.03 0.03 0.02 0.01 0.01 0.01 0.01 0.01 0.01 0.01 0.00 0.00 0.00 0.00 0.00 0.00 0.00 0.01 0.01 0.01 0.02 0.02 0.02 0.02 0.02 0.02 0.02 0.01 0.01 0.01 0.01 0.01 0.00 0.00 0.00 0.00 0.00 0.00 0.00 0.00 0.00
0.08 0.07 0.05 0.05 0.04 0.03 0.02 0.02 0.02 0.02 0.01 0.01 0.01 0.01 0.00 0.00 0.00 0.00 0.00 0.00 0.01 0.01 0.02 0.02 0.04 0.03 0.03 0.03 0.03 0.02 0.02 0.02 0.01 0.01 0.01 0.01 0.01 0.00 0.00 0.00 0.00 0.00 0.00 0.00
0.10 0.10 0.08 0.08 0.08 0.07 0.06 0.04 0.03 0.03 0.03 0.03 0.02 0.02 0.01 0.01 0.01 0.01 0.01 0.01 0.01 0.02 0.03 0.04 0.04 0.04 0.03 0.03 0.04 0.03 0.03 0.03 0.03 0.03 0.02 0.02 0.01 0.00 0.00 0.00 0.00 0.00 0.00 0.00
0.14 0.13 0.11 0.11 0.11 0.10 0.08 0.07 0.06 0.06 0.07 0.06 0.05 0.04 0.04 0.03 0.02 0.02 0.01 0.02 0.02 0.03 0.03 0.05 0.04 0.04 0.04 0.05 0.07 0.05 0.04 0.04 0.04 0.03 0.03 0.02 0.01 0.01 0.00 0.00 0.00 0.00 0.00 0.00
0.13 0.13 0.13 0.13 0.14 0.15 0.13 0.10 0.08 0.08 0.09 0.09 0.08 0.07 0.06 0.05 0.04 0.03 0.03 0.03 0.03 0.04 0.04 0.04 0.04 0.05 0.06 0.07 0.07 0.05 0.05 0.05 0.05 0.04 0.03 0.02 0.01 0.01 0.01 0.00 0.00 0.00 0.00 0.00
0.10 0.10 0.09 0.10 0.10 0.10 0.10 0.09 0.08 0.09 0.10 0.10 0.09 0.09 0.08 0.07 0.06 0.05 0.05 0.05 0.04 0.05 0.05 0.05 0.06 0.08 0.09 0.08 0.06 0.06 0.07 0.06 0.05 0.04 0.03 0.02 0.02 0.01 0.01 0.00 0.00 0.00 0.00 0.00
0.06 0.05 0.05 0.05 0.05 0.05 0.06 0.07 0.07 0.08 0.09 0.10 0.09 0.08 0.07 0.06 0.06 0.05 0.05 0.06 0.07 0.07 0.06 0.07 0.09 0.08 0.08 0.07 0.07 0.07 0.07 0.06 0.05 0.04 0.03 0.02 0.01 0.01 0.00 0.00 0.00 0.00 0.00 0.00
0.04 0.03 0.02 0.02 0.01 0.02 0.02 0.03 0.04 0.06 0.08 0.08 0.08 0.07 0.07 0.07 0.07 0.07 0.06 0.06 0.07 0.08 0.08 0.09 0.09 0.09 0.09 0.08 0.08 0.08 0.07 0.05 0.04 0.03 0.02 0.01 0.01 0.01 0.01 0.00 0.00 0.01 0.00 0.00
0.02 0.01 0.01 0.01 0.01 0.01 0.01 0.01 0.01 0.02 0.04 0.06 0.06 0.07 0.08 0.09 0.09 0.08 0.08 0.08 0.08 0.09 0.08 0.08 0.08 0.08 0.08 0.07 0.07 0.06 0.05 0.04 0.03 0.02 0.01 0.01 0.01 0.01 0.01 0.01 0.00 0.01 0.01 0.01
0.01 0.01 0.00 0.00 0.00 0.00 0.00 0.00 0.01 0.01 0.02 0.03 0.04 0.06 0.07 0.08 0.08 0.08 0.08 0.08 0.09 0.09 0.08 0.07 0.07 0.07 0.06 0.06 0.05 0.04 0.03 0.02 0.02 0.01 0.01 0.01 0.01 0.01 0.01 0.01 0.01 0.01 0.01 0.01

GEFSNGP_prec_meanprecacc_054.txt.gz
Total_Precipitation_Accumulation
0.18 0.24 0.40 0.34 0.20 0.18 0.30 0.21 0.16 0.06 0.05 0.07 0.10 0.14 0.16 0.14 0.10 0.06 0.04 0.04 0.04 0.04 0.04 0.05 0.05 0.07 0.08 0.10 0.14 0.17 0.18 0.17 0.16 0.16 0.17 0.16 0.15 0.12 0.10 0.08 0.06 0.05 0.06 0.06
0.27 0.25 0.36 0.29 0.14 0.12 0.12 0.09 0.08 0.07 0.08 0.09 0.13 0.18 0.22 0.19 0.12 0.06 0.04 0.03 0.03 0.03 0.03 0.03 0.04 0.07 0.10 0.14 0.21 0.25 0.26 0.22 0.18 0.18 0.18 0.16 0.14 0.12 0.10 0.08 0.07 0.06 0.07 0.08
0.45 0.23 0.27 0.23 0.12 0.12 0.10 0.07 0.07 0.09 0.09 0.11 0.18 0.22 0.20 0.15 0.09 0.05 0.03 0.03 0.02 0.02 0.01 0.02 0.04 0.11 0.18 0.23 0.29 0.31 0.34 0.32 0.26 0.23 0.21 0.17 0.15 0.16 0.17 0.18 0.18 0.18 0.19 0.20
0.55 0.36 0.35 0.22 0.16 0.14 0.11 0.07 0.05 0.06 0.05 0.07 0.13 0.14 0.12 0.09 0.07 0.04 0.02 0.02 0.02 0.03 0.02 0.03 0.06 0.14 0.21 0.28 0.38 0.39 0.39 0.38 0.37 0.37 0.38 0.38 0.37 0.38 0.39 0.38 0.38 0.40 0.42 0.43
0.36 0.28 0.16 0.08 0.09 0.11 0.11 0.07 0.03 0.03 0.03 0.03 0.05 0.11 0.15 0.12 0.08 0.06 0.03 0.02 0.01 0.02 0.03 0.03 0.06 0.13 0.20 0.32 0.45 0.54 0.57 0.56 0.57 0.59 0.63 0.67 0.70 0.69 0.68 0.69 0.68 0.65 0.60 0.54
0.21 0.18 0.07 0.04 0.02 0.03 0.04 0.04 0.01 0.01 0.01 0.01 0.03 0.07 0.13 0.15 0.12 0.10 0.08 0.06 0.05 0.04 0.06 0.08 0.11 0.17 0.29 0.45 0.59 0.68 0.69 0.72 0.75 0.78 0.81 0.79 0.79 0.76 0.68 0.62 0.60 0.58 0.54 0.50
0.15 0.12 0.02 0.00 0.00 0.00 0.03 0.03 0.00 0.00 0.01 0.01 0.01 0.03 0.05 0.10 0.14 0.14 0.15 0.16 0.17 0.17 0.20 0.22 0.25 0.33 0.47 0.58 0.66 0.68 0.68 0.68 0.70 0.67 0.64 0.58 0.55 0.53 0.48 0.43 0.37 0.32 0.28 0.23
0.05 0.06 0.02 0.00 0.01 0.01 0.01 0.01 0.00 0.00 0.01 0.01 0.01 0.01 0.02 0.03 0.07 0.12 0.15 0.21 0.28 0.34 0.37 0.37 0.39 0.45 0.52 0.54 0.54 0.51 0.49 0.46 0.43 0.37 0.31 0.27 0.24 0.23 0.20 0.17 0.15 0.12 0.09 0.07
0.01 0.01 0.00 0.00 0.01 0.01 0.01 0.01 0.01 0.01 0.01 0.01 0.02 0.02 0.01 0.01 0.02 0.04 0.06 0.09 0.13 0.19 0.23 0.24 0.24 0.26 0.28 0.26 0.22 0.19 0.16 0.14 0.12 0.09 0.08 0.06 0.04 0.03 0.03 0.02 0.02 0.02 0.02 0.01
0.00 0.00 0.00 0.00 0.01 0.01 0.01 0.01 0.02 0.02 0.02 0.02 0.03 0.03 0.03 0.02 0.02 0.02 0.02 0.03 0.04 0.05 0.06 0.06 0.06 0.06 0.06 0.05 0.03 0.02 0.01 0.01 0.01 0.01 0.00 0.01 0.00 0.00 0.00 0.00 0.00 0.00 0.00 0.00
0.01 0.00 0.00 0.00 0.01 0.01 0.01 0.01 0.01 0.01 0.02 0.02 0.02 0.03 0.03 0.03 0.02 0.02 0.02 0.02 0.02 0.02 0.02 0.02 0.02 0.01 0.01 0.00 0.00 0.00 0.00 0.00 0.00 0.00 0.00 0.00 0.00 0.00 0.00 0.00 0.00 0.00 0.00 0.00
0.02 0.01 0.01 0.00 0.00 0.00 0.01 0.01 0.01 0.01 0.01 0.01 0.01 0.02 0.02 0.02 0.02 0.02 0.03 0.02 0.02 0.02 0.02 0.02 0.02 0.01 0.01 0.00 0.00 0.00 0.00 0.00 0.00 0.00 0.00 0.00 0.00 0.00 0.00 0.00 0.00 0.00 0.00 0.00
0.01 0.01 0.01 0.00 0.00 0.00 0.00 0.00 0.01 0.00 0.00 0.00 0.00 0.00 0.01 0.01 0.02 0.02 0.02 0.02 0.03 0.02 0.02 0.02 0.01 0.01 0.01 0.01 0.00 0.00 0.00 0.00 0.00 0.00 0.00 0.00 0.00 0.00 0.00 0.00 0.00 0.00 0.00 0.00
0.01 0.01 0.01 0.01 0.01 0.01 0.01 0.00 0.00 0.00 0.00 0.00 0.00 0.00 0.00 0.01 0.01 0.02 0.04 0.04 0.03 0.02 0.02 0.01 0.01 0.01 0.01 0.01 0.01 0.00 0.00 0.00 0.00 0.00 0.00 0.00 0.00 0.00 0.00 0.00 0.00 0.00 0.00 0.00
0.01 0.01 0.02 0.03 0.03 0.02 0.01 0.01 0.01 0.01 0.01 0.01 0.01 0.01 0.00 0.00 0.01 0.02 0.03 0.03 0.03 0.03 0.03 0.02 0.01 0.01 0.01 0.01 0.01 0.01 0.01 0.01 0.01 0.01 0.01 0.01 0.00 0.00 0.00 0.00 0.00 0.00 0.00 0.00
0.02 0.02 0.02 0.03 0.04 0.04 0.04 0.03 0.02 0.02 0.02 0.01 0.01 0.01 0.01 0.01 0.01 0.01 0.01 0.02 0.02 0.03 0.03 0.03 0.03 0.03 0.02 0.02 0.02 0.02 0.02 0.03 0.03 0.02 0.01 0.01 0.01 0.01 0.00 0.00 0.00 0.00 0.00 0.00
0.07 0.06 0.06 0.06 0.05 0.05 0.05 0.04 0.03 0.03 0.02 0.02 0.01 0.01 0.01 0.00 0.00 0.00 0.01 0.01 0.01 0.02 0.02 0.03 0.03 0.04 0.03 0.03 0.03 0.02 0.03 0.03 0.04 0.03 0.02 0.02 0.01 0.01 0.01 0.01 0.00 0.00 0.00 0.00
0.09 0.09 0.10 0.11 0.10 0.09 0.08 0.06 0.05 0.04 0.03 0.03 0.02 0.02 0.01 0.01 0.01 0.00 0.00 0.00 0.01 0.01 0.02 0.02 0.02 0.03 0.03 0.03 0.03 0.03 0.03 0.03 0.03 0.03 0.03 0.03 0.02 0.02 0.01 0.01 0.01 0.01 0.01 0.00
0.11 0.11 0.10 0.11 0.12 0.12 0.11 0.09 0.07 0.06 0.04 0.03 0.02 0.02 0.01 0.01 0.01 0.00 0.00 0.00 0.01 0.01 0.02 0.02 0.04 0.04 0.03 0.04 0.05 0.04 0.04 0.04 0.04 0.04 0.04 0.04 0.04 0.03 0.02 0.02 0.01 0.01 0.01 0.01
0.14 0.13 0.13 0.14 0.15 0.14 0.13 0.12 0.10 0.08 0.07 0.06 0.04 0.03 0.02 0.02 0.01 0.01 0.01 0.01 0.01 0.02 0.03 0.04 0.04 0.04 0.04 0.04 0.06 0.05 0.04 0.05 0.05 0.06 0.06 0.06 0.05 0.04 0.03 0.02 0.02 0.01 0.01 0.01
0.18 0.16 0.15 0.15 0.16 0.17 0.15 0.13 0.13 0.13 0.11 0.09 0.07 0.06 0.04 0.03 0.02 0.02 0.01 0.02 0.02 0.03 0.03 0.05 0.04 0.04 0.05 0.06 0.08 0.07 0.06 0.06 0.06 0.06 0.07 0.06 0.05 0.05 0.04 0.03 0.02 0.01 0.01 0.01
0.17 0.17 0.16 0.16 0.17 0.19 0.17 0.15 0.14 0.14 0.13 0.12 0.10 0.09 0.07 0.05 0.04 0.03 0.03 0.03 0.03 0.04 0.04 0.04 0.04 0.05 0.06 0.08 0.07 0.07 0.08 0.09 0.08 0.08 0.07 0.06 0.05 0.04 0.03 0.03 0.02 0.01 0.01 0.01
0.15 0.15 0.14 0.13 0.12 0.12 0.12 0.12 0.12 0.13 0.13 0.12 0.12 0.11 0.09 0.08 0.07 0.06 0.06 0.05 0.04 0.05 0.05 0.05 0.06 0.08 0.09 0.09 0.07 0.08 0.09 0.09 0.09 0.08 0.07 0.06 0.05 0.04 0.03 0.03 0.02 0.01 0.01 0.01
0.09 0.09 0.09 0.08 0.08 0.08 0.09 0.09 0.10 0.10 0.11 0.11 0.10 0.09 0.08 0.07 0.07 0.06 0.05 0.06 0.07 0.07 0.07 0.07 0.09 0.09 0.09 0.08 0.08 0.09 0.10 0.09 0.08 0.07 0.06 0.06 0.04 0.03 0.03 0.02 0.02 0.01 0.01 0.01
0.07 0.06 0.04 0.04 0.04 0.03 0.04 0.04 0.05 0.06 0.08 0.09 0.08 0.08 0.07 0.07 0.07 0.07 0.06 0.06 0.07 0.08 0.08 0.09 0.09 0.09 0.09 0.09 0.10 0.10 0.09 0.08 0.07 0.06 0.05 0.04 0.03 0.03 0.02 0.02 0.01 0.01 0.01 0.01
0.05 0.04 0.03 0.03 0.02 0.02 0.02 0.02 0.02 0.03 0.04 0.06 0.07 0.07 0.08 0.09 0.09 0.08 0.08 0.08 0.08 0.09 0.08 0.08 0.08 0.09 0.09 0.09 0.08 0.07 0.07 0.06 0.05 0.04 0.03 0.03 0.03 0.02 0.02 0.01 0.01 0.01 0.01 0.01
0.03 0.02 0.02 0.02 0.01 0.01 0.01 0.01 0.01 0.01 0.02 0.03 0.05 0.06 0.07 0.08 0.08 0.08 0.08 0.08 0.09 0.09 0.08 0.08 0.07 0.08 0.08 0.07 0.06 0.05 0.04 0.04 0.03 0.03 0.02 0.02 0.02 0.01 0.01 0.01 0.01 0.01 0.01 0.01

GEFSNGP_prec_meanprecacc_060.txt.gz
Total_Precipitation_Accumulation
0.19 0.25 0.40 0.34 0.20 0.18 0.31 0.22 0.16 0.06 0.05 0.07 0.10 0.14 0.16 0.14 0.10 0.06 0.04 0.04 0.04 0.04 0.04 0.05 0.05 0.07 0.08 0.10 0.14 0.17 0.18 0.17 0.16 0.16 0.17 0.16 0.15 0.12 0.10 0.08 0.06 0.05 0.06 0.06
0.28 0.26 0.36 0.29 0.14 0.12 0.13 0.09 0.08 0.07 0.08 0.09 0.13 0.18 0.22 0.19 0.12 0.06 0.04 0.03 0.03 0.03 0.03 0.03 0.04 0.07 0.10 0.14 0.21 0.25 0.26 0.22 0.18 0.18 0.18 0.16 0.14 0.12 0.10 0.08 0.07 0.06 0.07 0.08
0.45 0.23 0.27 0.23 0.12 0.12 0.10 0.07 0.07 0.09 0.09 0.11 0.18 0.22 0.20 0.15 0.09 0.05 0.03 0.03 0.02 0.02 0.01 0.02 0.04 0.11 0.18 0.23 0.29 0.31 0.34 0.32 0.26 0.23 0.21 0.17 0.15 0.16 0.17 0.18 0.18 0.18 0.19 0.20
0.55 0.36 0.35 0.22 0.16 0.14 0.11 0.07 0.05 0.06 0.05 0.07 0.13 0.14 0.12 0.09 0.07 0.04 0.02 0.02 0.02 0.03 0.02 0.03 0.06 0.14 0.21 0.28 0.38 0.39 0.39 0.38 0.37 0.37 0.38 0.38 0.38 0.39 0.39 0.38 0.38 0.40 0.42 0.43
0.36 0.28 0.16 0.08 0.09 0.11 0.11 0.07 0.03 0.03 0.03 0.03 0.05 0.11 0.15 0.12 0.08 0.06 0.03 0.02 0.01 0.02 0.03 0.03 0.06 0.13 0.20 0.32 0.45 0.54 0.57 0.56 0.57 0.59 0.64 0.68 0.70 0.69 0.68 0.69 0.68 0.65 0.60 0.54
0.22 0.18 0.07 0.04 0.02 0.03 0.04 0.04 0.01 0.01 0.01 0.01 0.03 0.07 0.13 0.15 0.12 0.10 0.08 0.06 0.05 0.04 0.06 0.08 0.11 0.17 0.29 0.45 0.59 0.68 0.69 0.72 0.75 0.78 0.82 0.79 0.79 0.76 0.68 0.62 0.60 0.58 0.54 0.50
0.16 0.13 0.02 0.00 0.00 0.00 0.03 0.04 0.00 0.00 0.01 0.01 0.01 0.03 0.05 0.10 0.14 0.14 0.15 0.16 0.17 0.17 0.20 0.22 0.25 0.33 0.47 0.58 0.66 0.68 0.68 0.68 0.70 0.67 0.64 0.58 0.55 0.53 0.48 0.43 0.37 0.32 0.28 0.23
0.06 0.07 0.02 0.00 0.01 0.01 0.01 0.01 0.00 0.00 0.01 0.01 0.01 0.01 0.02 0.03 0.07 0.12 0.15 0.21 0.28 0.34 0.37 0.37 0.39 0.45 0.52 0.54 0.54 0.51 0.49 0.46 0.43 0.37 0.31 0.27 0.24 0.23 0.20 0.17 0.15 0.12 0.09 0.07
0.01 0.01 0.01 0.00 0.01 0.01 0.01 0.01 0.01 0.01 0.01 0.01 0.02 0.02 0.01 0.01 0.03 0.04 0.06 0.09 0.13 0.19 0.23 0.24 0.24 0.26 0.28 0.26 0.22 0.19 0.16 0.14 0.12 0.10 0.08 0.06 0.04 0.03 0.03 0.02 0.02 0.02 0.02 0.01
0.01 0.01 0.00 0.00 0.01 0.01 0.01 0.01 0.02 0.02 0.02 0.03 0.03 0.03 0.03 0.02 0.02 0.02 0.02 0.03 0.04 0.05 0.06 0.07 0.07 0.07 0.07 0.05 0.04 0.03 0.02 0.01 0.01 0.01 0.01 0.01 0.01 0.00 0.00 0.00 0.00 0.00 0.00 0.00
0.02 0.01 0.00 0.00 0.01 0.01 0.01 0.01 0.01 0.02 0.02 0.02 0.03 0.04 0.03 0.04 0.03 0.02 0.03 0.03 0.03 0.03 0.03 0.04 0.03 0.03 0.03 0.02 0.02 0.01 0.01 0.01 0.00 0.00 0.00 0.00 0.00 0.00 0.00 0.00 0.00 0.00 0.00 0.00
0.03 0.01 0.01 0.00 0.00 0.00 0.01 0.01 0.01 0.01 0.02 0.01 0.02 0.03 0.03 0.02 0.03 0.03 0.04 0.03 0.03 0.04 0.04 0.04 0.05 0.05 0.04 0.03 0.03 0.03 0.02 0.02 0.01 0.01 0.00 0.00 0.00 0.00 0.00 0.00 0.00 0.00 0.00 0.00
0.02 0.01 0.01 0.00 0.00 0.00 0.01 0.01 0.01 0.01 0.01 0.01 0.01 0.01 0.01 0.03 0.03 0.03 0.03 0.04 0.04 0.04 0.05 0.04 0.04 0.04 0.04 0.04 0.04 0.03 0.03 0.03 0.02 0.01 0.01 0.00 0.00 0.00 0.00 0.00 0.00 0.00 0.00 0.00
0.01 0.01 0.02 0.01 0.01 0.01 0.01 0.01 0.01 0.01 0.01 0.01 0.01 0.01 0.01 0.01 0.02 0.03 0.04 0.04 0.04 0.04 0.04 0.04 0.04 0.04 0.04 0.04 0.04 0.03 0.03 0.03 0.03 0.02 0.02 0.01 0.01 0.01 0.00 0.00 0.00 0.00 0.00 0.00
0.01 0.02 0.03 0.03 0.03 0.02 0.02 0.02 0.02 0.02 0.02 0.02 0.02 0.02 0.02 0.01 0.01 0.02 0.03 0.03 0.03 0.04 0.03 0.03 0.03 0.03 0.03 0.03 0.03 0.03 0.03 0.03 0.03 0.03 0.02 0.02 0.02 0.02 0.01 0.01 0.01 0.01 0.01 0.01
0.04 0.03 0.03 0.04 0.05 0.05 0.04 0.04 0.03 0.03 0.03 0.03 0.03 0.03 0.03 0.02 0.02 0.02 0.02 0.02 0.02 0.03 0.03 0.03 0.04 0.04 0.04 0.03 0.03 0.03 0.03 0.04 0.04 0.03 0.03 0.03 0.03 0.02 0.02 0.02 0.01 0.01 0.01 0.01
0.10 0.09 0.09 0.09 0.08 0.08 0.07 0.06 0.04 0.04 0.04 0.04 0.03 0.03 0.02 0.02 0.02 0.02 0.02 0.01 0.01 0.02 0.02 0.03 0.04 0.04 0.04 0.03 0.03 0.03 0.04 0.05 0.06 0.05 0.03 0.03 0.03 0.03 0.02 0.02 0.02 0.01 0.01 0.01
0.13 0.13 0.14 0.16 0.16 0.14 0.12 0.09 0.07 0.06 0.06 0.06 0.05 0.04 0.03 0.03 0.02 0.02 0.02 0.02 0.02 0.02 0.02 0.02 0.03 0.03 0.03 0.03 0.03 0.04 0.04 0.04 0.05 0.04 0.04 0.04 0.05 0.04 0.04 0.03 0.02 0.02 0.02 0.02
0.13 0.13 0.13 0.15 0.17 0.17 0.15 0.14 0.12 0.11 0.09 0.08 0.06 0.05 0.04 0.04 0.03 0.02 0.02 0.02 0.02 0.02 0.02 0.03 0.04 0.04 0.03 0.04 0.05 0.04 0.04 0.05 0.05 0.05 0.06 0.06 0.07 0.05 0.04 0.04 0.03 0.03 0.03 0.03
0.15 0.15 0.15 0.17 0.18 0.18 0.17 0.16 0.15 0.14 0.13 0.11 0.09 0.07 0.06 0.05 0.05 0.04 0.03 0.02 0.02 0.03 0.03 0.04 0.05 0.04 0.04 0.04 0.06 0.05 0.05 0.05 0.06 0.07 0.07 0.07 0.07 0.06 0.05 0.05 0.04 0.04 0.04 0.03
0.19 0.17 0.16 0.17 0.19 0.20 0.18 0.17 0.17 0.17 0.17 0.14 0.12 0.10 0.08 0.07 0.06 0.05 0.04 0.04 0.03 0.04 0.04 0.05 0.05 0.04 0.05 0.06 0.09 0.07 0.06 0.07 0.07 0.07 0.08 0.08 0.08 0.07 0.06 0.06 0.05 0.05 0.04 0.04
0.18 0.18 0.17 0.17 0.19 0.21 0.20 0.18 0.17 0.17 0.16 0.15 0.13 0.12 0.10 0.09 0.07 0.06 0.05 0.05 0.05 0.05 0.05 0.04 0.04 0.05 0.07 0.08 0.08 0.07 0.08 0.09 0.09 0.09 0.08 0.08 0.07 0.06 0.06 0.05 0.05 0.05 0.04 0.03
0.16 0.17 0.16 0.15 0.14 0.14 0.14 0.14 0.14 0.15 0.16 0.15 0.15 0.14 0.12 0.10 0.09 0.07 0.07 0.06 0.05 0.06 0.05 0.05 0.07 0.09 0.09 0.09 0.08 0.08 0.10 0.10 0.10 0.09 0.08 0.08 0.07 0.06 0.05 0.05 0.05 0.04 0.04 0.03
0.10 0.10 0.11 0.10 0.10 0.10 0.11 0.11 0.12 0.12 0.13 0.13 0.12 0.11 0.10 0.09 0.08 0.07 0.06 0.07 0.08 0.08 0.07 0.08 0.10 0.10 0.09 0.09 0.09 0.10 0.10 0.10 0.10 0.09 0.08 0.07 0.06 0.05 0.05 0.04 0.04 0.03 0.03 0.02
0.07 0.07 0.06 0.06 0.06 0.06 0.06 0.07 0.07 0.08 0.10 0.10 0.10 0.09 0.09 0.08 0.09 0.08 0.07 0.06 0.07 0.08 0.09 0.10 0.10 0.10 0.10 0.10 0.10 0.10 0.10 0.09 0.08 0.07 0.06 0.05 0.05 0.04 0.04 0.03 0.03 0.02 0.02 0.02
0.05 0.05 0.05 0.05 0.05 0.04 0.04 0.04 0.04 0.04 0.06 0.07 0.08 0.08 0.09 0.10 0.09 0.09 0.09 0.08 0.08 0.09 0.09 0.09 0.08 0.09 0.09 0.09 0.09 0.08 0.07 0.07 0.06 0.05 0.04 0.04 0.04 0.03 0.03 0.02 0.02 0.02 0.02 0.01
0.04 0.03 0.03 0.03 0.03 0.03 0.03 0.03 0.03 0.03 0.03 0.04 0.05 0.07 0.08 0.09 0.08 0.08 0.08 0.08 0.09 0.09 0.09 0.08 0.07 0.08 0.08 0.08 0.07 0.06 0.05 0.04 0.04 0.03 0.03 0.03 0.02 0.02 0.02 0.02 0.02 0.02 0.02 0.02

GEFSNGP_prec_meanprecacc_066.txt.gz
Total_Precipitation_Accumulation
0.21 0.26 0.40 0.35 0.20 0.18 0.31 0.22 0.17 0.06 0.05 0.07 0.10 0.14 0.16 0.14 0.10 0.06 0.04 0.04 0.04 0.04 0.04 0.05 0.05 0.07 0.08 0.10 0.14 0.17 0.18 0.17 0.16 0.16 0.17 0.16 0.15 0.12 0.10 0.08 0.06 0.05 0.06 0.06
0.29 0.27 0.36 0.29 0.14 0.12 0.13 0.09 0.09 0.07 0.08 0.09 0.13 0.18 0.22 0.19 0.12 0.06 0.04 0.03 0.03 0.03 0.03 0.03 0.04 0.07 0.10 0.14 0.21 0.25 0.26 0.22 0.18 0.18 0.18 0.16 0.14 0.12 0.10 0.08 0.07 0.06 0.07 0.08
0.46 0.24 0.27 0.23 0.12 0.12 0.10 0.07 0.07 0.10 0.09 0.11 0.18 0.22 0.20 0.15 0.09 0.05 0.03 0.03 0.02 0.02 0.01 0.02 0.04 0.11 0.18 0.23 0.29 0.31 0.34 0.32 0.26 0.23 0.21 0.17 0.15 0.16 0.17 0.18 0.18 0.18 0.19 0.20
0.57 0.37 0.35 0.22 0.16 0.14 0.11 0.07 0.05 0.06 0.05 0.07 0.13 0.14 0.12 0.09 0.07 0.04 0.02 0.02 0.02 0.03 0.02 0.03 0.06 0.14 0.21 0.28 0.38 0.39 0.39 0.38 0.37 0.37 0.38 0.38 0.38 0.39 0.39 0.38 0.38 0.40 0.42 0.43
0.38 0.29 0.16 0.08 0.09 0.11 0.11 0.07 0.03 0.03 0.03 0.03 0.05 0.11 0.15 0.12 0.08 0.06 0.03 0.02 0.01 0.02 0.03 0.03 0.06 0.13 0.20 0.32 0.45 0.54 0.57 0.56 0.57 0.59 0.64 0.68 0.70 0.69 0.68 0.69 0.68 0.65 0.60 0.54
0.23 0.19 0.08 0.04 0.02 0.03 0.04 0.04 0.01 0.01 0.01 0.01 0.03 0.07 0.13 0.15 0.12 0.10 0.08 0.06 0.05 0.04 0.06 0.08 0.11 0.17 0.29 0.45 0.59 0.68 0.69 0.72 0.75 0.78 0.82 0.79 0.79 0.76 0.68 0.62 0.60 0.58 0.54 0.50
0.18 0.15 0.02 0.01 0.00 0.01 0.04 0.05 0.00 0.00 0.01 0.01 0.01 0.03 0.05 0.10 0.14 0.14 0.15 0.16 0.17 0.17 0.20 0.22 0.25 0.33 0.47 0.58 0.66 0.68 0.68 0.68 0.70 0.67 0.64 0.58 0.55 0.53 0.48 0.43 0.37 0.32 0.28 0.23
0.08 0.10 0.04 0.01 0.01 0.01 0.02 0.01 0.00 0.00 0.01 0.01 0.01 0.01 0.02 0.03 0.07 0.12 0.15 0.21 0.28 0.34 0.37 0.37 0.39 0.45 0.52 0.54 0.54 0.51 0.49 0.46 0.43 0.37 0.31 0.27 0.24 0.23 0.20 0.18 0.15 0.12 0.09 0.07
0.05 0.06 0.02 0.01 0.01 0.01 0.01 0.01 0.01 0.01 0.01 0.01 0.02 0.02 0.01 0.01 0.03 0.04 0.06 0.09 0.13 0.19 0.24 0.24 0.24 0.26 0.28 0.26 0.22 0.19 0.16 0.14 0.12 0.10 0.08 0.06 0.04 0.03 0.03 0.02 0.02 0.02 0.02 0.01
0.03 0.03 0.01 0.01 0.01 0.01 0.01 0.01 0.02 0.02 0.02 0.03 0.03 0.03 0.03 0.02 0.02 0.02 0.02 0.03 0.04 0.05 0.06 0.07 0.07 0.07 0.07 0.06 0.04 0.03 0.02 0.02 0.01 0.01 0.01 0.01 0.01 0.00 0.00 0.00 0.00 0.00 0.00 0.00
0.03 0.02 0.01 0.01 0.01 0.01 0.01 0.01 0.01 0.02 0.02 0.02 0.03 0.04 0.04 0.04 0.03 0.03 0.03 0.03 0.03 0.03 0.04 0.04 0.04 0.04 0.04 0.03 0.02 0.02 0.02 0.01 0.01 0.01 0.01 0.01 0.01 0.00 0.00 0.00 0.00 0.00 0.00 0.00
0.05 0.02 0.02 0.01 0.00 0.01 0.01 0.01 0.01 0.02 0.02 0.02 0.02 0.03 0.03 0.03 0.03 0.04 0.04 0.04 0.04 0.04 0.04 0.05 0.05 0.06 0.05 0.05 0.04 0.04 0.04 0.04 0.03 0.02 0.02 0.01 0.01 0.01 0.01 0.01 0.01 0.01 0.00 0.00
0.03 0.02 0.02 0.01 0.00 0.00 0.01 0.01 0.02 0.01 0.01 0.01 0.01 0.01 0.01 0.03 0.04 0.03 0.04 0.05 0.05 0.05 0.06 0.05 0.05 0.05 0.06 0.06 0.06 0.06 0.06 0.06 0.06 0.05 0.04 0.03 0.02 0.02 0.02 0.02 0.01 0.01 0.01 0.00
0.01 0.01 0.02 0.01 0.01 0.01 0.01 0.02 0.01 0.01 0.01 0.01 0.01 0.01 0.01 0.01 0.02 0.03 0.05 0.06 0.06 0.05 0.06 0.06 0.05 0.06 0.06 0.06 0.06 0.06 0.06 0.07 0.07 0.05 0.05 0.05 0.04 0.03 0.03 0.02 0.02 0.01 0.01 0.01
0.01 0.02 0.03 0.04 0.03 0.02 0.02 0.02 0.02 0.02 0.02 0.02 0.02 0.02 0.02 0.02 0.02 0.02 0.04 0.04 0.05 0.05 0.05 0.05 0.04 0.05 0.05 0.05 0.05 0.05 0.05 0.05 0.05 0.05 0.05 0.05 0.04 0.04 0.03 0.02 0.02 0.02 0.02 0.02
0.04 0.03 0.03 0.04 0.06 0.06 0.05 0.04 0.04 0.04 0.03 0.03 0.03 0.03 0.03 0.02 0.02 0.03 0.03 0.03 0.04 0.04 0.05 0.05 0.05 0.05 0.05 0.05 0.05 0.05 0.05 0.06 0.06 0.05 0.04 0.04 0.04 0.04 0.03 0.03 0.02 0.02 0.02 0.01
0.11 0.09 0.09 0.09 0.08 0.09 0.08 0.07 0.05 0.05 0.05 0.04 0.04 0.03 0.03 0.03 0.02 0.03 0.03 0.03 0.03 0.04 0.04 0.05 0.05 0.06 0.05 0.04 0.04 0.04 0.05 0.07 0.09 0.07 0.04 0.04 0.04 0.04 0.04 0.03 0.03 0.02 0.02 0.02
0.13 0.14 0.14 0.17 0.17 0.15 0.13 0.11 0.09 0.07 0.07 0.06 0.06 0.05 0.04 0.03 0.03 0.03 0.03 0.04 0.04 0.04 0.04 0.04 0.04 0.04 0.04 0.04 0.04 0.04 0.05 0.05 0.06 0.06 0.05 0.06 0.06 0.05 0.05 0.05 0.04 0.04 0.03 0.04
0.13 0.13 0.13 0.15 0.18 0.18 0.17 0.15 0.14 0.12 0.11 0.09 0.08 0.07 0.06 0.05 0.05 0.04 0.04 0.04 0.04 0.04 0.04 0.04 0.06 0.05 0.04 0.05 0.06 0.05 0.05 0.05 0.06 0.06 0.07 0.08 0.09 0.07 0.06 0.06 0.05 0.05 0.05 0.04
0.15 0.15 0.15 0.17 0.19 0.19 0.19 0.18 0.17 0.16 0.15 0.13 0.11 0.10 0.09 0.08 0.08 0.07 0.05 0.05 0.05 0.05 0.06 0.06 0.06 0.05 0.05 0.05 0.07 0.06 0.06 0.06 0.07 0.07 0.08 0.09 0.09 0.08 0.07 0.06 0.06 0.06 0.05 0.05
0.19 0.17 0.16 0.17 0.19 0.20 0.19 0.19 0.19 0.19 0.19 0.17 0.15 0.14 0.12 0.11 0.10 0.09 0.08 0.07 0.07 0.06 0.06 0.07 0.06 0.06 0.06 0.07 0.10 0.08 0.07 0.08 0.08 0.08 0.09 0.09 0.09 0.08 0.07 0.07 0.06 0.06 0.05 0.05
0.18 0.18 0.17 0.17 0.19 0.21 0.21 0.19 0.19 0.19 0.18 0.17 0.16 0.15 0.14 0.12 0.11 0.10 0.09 0.08 0.08 0.08 0.07 0.06 0.06 0.07 0.08 0.10 0.09 0.08 0.09 0.10 0.10 0.09 0.09 0.08 0.08 0.07 0.07 0.07 0.06 0.06 0.05 0.05
0.16 0.17 0.16 0.15 0.15 0.15 0.15 0.15 0.16 0.17 0.17 0.17 0.17 0.16 0.15 0.13 0.12 0.11 0.10 0.09 0.08 0.08 0.08 0.08 0.09 0.11 0.11 0.10 0.09 0.09 0.11 0.11 0.11 0.10 0.09 0.09 0.08 0.07 0.07 0.06 0.06 0.05 0.05 0.04
0.10 0.10 0.11 0.10 0.10 0.11 0.12 0.12 0.13 0.13 0.14 0.14 0.13 0.13 0.12 0.11 0.10 0.09 0.08 0.09 0.10 0.10 0.09 0.10 0.11 0.11 0.11 0.10 0.10 0.11 0.11 0.11 0.11 0.10 0.09 0.08 0.07 0.06 0.06 0.05 0.05 0.04 0.04 0.04
0.07 0.07 0.06 0.06 0.07 0.07 0.07 0.08 0.09 0.10 0.11 0.12 0.11 0.10 0.10 0.10 0.10 0.10 0.08 0.08 0.08 0.10 0.09 0.10 0.11 0.11 0.11 0.11 0.11 0.11 0.11 0.10 0.09 0.08 0.07 0.06 0.06 0.05 0.05 0.04 0.04 0.04 0.03 0.03
0.06 0.05 0.05 0.05 0.05 0.05 0.05 0.05 0.05 0.06 0.07 0.09 0.09 0.10 0.11 0.11 0.10 0.10 0.10 0.09 0.09 0.10 0.10 0.09 0.09 0.10 0.10 0.10 0.10 0.09 0.08 0.08 0.07 0.06 0.05 0.05 0.05 0.04 0.04 0.03 0.03 0.03 0.02 0.02
0.04 0.04 0.04 0.04 0.04 0.04 0.04 0.04 0.04 0.05 0.05 0.05 0.07 0.08 0.09 0.10 0.10 0.09 0.09 0.09 0.10 0.10 0.09 0.08 0.08 0.08 0.09 0.08 0.08 0.07 0.05 0.05 0.04 0.04 0.04 0.03 0.03 0.03 0.02 0.02 0.02 0.02 0.02 0.02

GEFSNGP_prec_meanprecacc_072.txt.gz
Total_Precipitation_Accumulation
0.21 0.27 0.42 0.35 0.20 0.19 0.31 0.22 0.17 0.06 0.06 0.07 0.10 0.15 0.16 0.14 0.10 0.06 0.04 0.04 0.04 0.04 0.04 0.05 0.05 0.07 0.08 0.10 0.14 0.17 0.18 0.17 0.16 0.16 0.17 0.16 0.15 0.12 0.10 0.08 0.06 0.05 0.06 0.06
0.29 0.27 0.37 0.30 0.14 0.12 0.13 0.09 0.09 0.07 0.09 0.09 0.14 0.19 0.22 0.19 0.12 0.06 0.04 0.03 0.03 0.03 0.03 0.03 0.04 0.07 0.10 0.14 0.21 0.25 0.26 0.22 0.18 0.18 0.18 0.16 0.14 0.12 0.10 0.08 0.07 0.06 0.07 0.08
0.47 0.24 0.28 0.24 0.12 0.12 0.11 0.07 0.07 0.10 0.09 0.11 0.19 0.23 0.20 0.15 0.09 0.05 0.03 0.03 0.02 0.02 0.01 0.02 0.04 0.11 0.18 0.23 0.29 0.31 0.34 0.32 0.26 0.23 0.21 0.17 0.15 0.16 0.17 0.18 0.18 0.18 0.19 0.20
0.58 0.37 0.36 0.23 0.16 0.14 0.11 0.07 0.05 0.06 0.05 0.07 0.13 0.14 0.12 0.09 0.07 0.04 0.02 0.02 0.02 0.03 0.02 0.03 0.06 0.14 0.21 0.28 0.38 0.39 0.39 0.38 0.37 0.37 0.38 0.38 0.38 0.39 0.39 0.38 0.38 0.40 0.42 0.43
0.39 0.30 0.17 0.08 0.09 0.11 0.12 0.09 0.04 0.03 0.03 0.03 0.05 0.11 0.15 0.12 0.08 0.06 0.03 0.02 0.01 0.02 0.03 0.03 0.06 0.13 0.20 0.32 0.45 0.54 0.57 0.56 0.57 0.59 0.64 0.68 0.70 0.69 0.68 0.69 0.68 0.65 0.60 0.54
0.25 0.21 0.09 0.04 0.02 0.03 0.04 0.07 0.02 0.01 0.01 0.02 0.03 0.07 0.14 0.15 0.12 0.10 0.08 0.06 0.05 0.04 0.06 0.08 0.11 0.17 0.29 0.45 0.59 0.68 0.69 0.72 0.75 0.78 0.82 0.79 0.79 0.76 0.68 0.62 0.60 0.58 0.54 0.50
0.20 0.17 0.03 0.01 0.00 0.01 0.05 0.07 0.01 0.01 0.01 0.01 0.01 0.03 0.05 0.10 0.14 0.14 0.15 0.16 0.17 0.17 0.20 0.22 0.25 0.33 0.47 0.58 0.66 0.68 0.68 0.68 0.70 0.67 0.64 0.58 0.56 0.53 0.48 0.43 0.37 0.32 0.28 0.23
0.09 0.12 0.06 0.01 0.01 0.02 0.03 0.01 0.01 0.01 0.01 0.01 0.02 0.02 0.02 0.03 0.07 0.12 0.15 0.21 0.28 0.34 0.37 0.37 0.39 0.45 0.52 0.54 0.54 0.51 0.49 0.46 0.43 0.37 0.31 0.27 0.24 0.23 0.20 0.18 0.15 0.12 0.09 0.07
0.05 0.07 0.03 0.01 0.01 0.01 0.01 0.01 0.01 0.01 0.01 0.01 0.02 0.02 0.01 0.01 0.03 0.04 0.06 0.09 0.13 0.19 0.24 0.24 0.24 0.26 0.28 0.26 0.22 0.19 0.16 0.14 0.12 0.10 0.08 0.06 0.05 0.04 0.03 0.02 0.02 0.02 0.02 0.01
0.04 0.04 0.02 0.01 0.01 0.01 0.01 0.02 0.02 0.02 0.03 0.03 0.03 0.03 0.03 0.02 0.02 0.02 0.02 0.03 0.04 0.05 0.07 0.07 0.07 0.08 0.08 0.06 0.04 0.03 0.02 0.02 0.02 0.01 0.01 0.01 0.01 0.01 0.00 0.00 0.00 0.00 0.00 0.00
0.04 0.03 0.02 0.01 0.01 0.01 0.01 0.01 0.02 0.02 0.02 0.03 0.04 0.04 0.04 0.04 0.03 0.03 0.03 0.03 0.03 0.03 0.04 0.04 0.04 0.04 0.04 0.03 0.03 0.02 0.02 0.01 0.01 0.01 0.01 0.01 0.01 0.01 0.01 0.01 0.01 0.00 0.00 0.00
0.06 0.03 0.02 0.01 0.01 0.01 0.01 0.01 0.01 0.02 0.02 0.02 0.02 0.03 0.03 0.03 0.04 0.04 0.04 0.04 0.04 0.04 0.04 0.05 0.06 0.06 0.06 0.06 0.05 0.05 0.05 0.04 0.03 0.03 0.03 0.02 0.02 0.02 0.02 0.02 0.02 0.01 0.01 0.01
0.03 0.02 0.02 0.01 0.00 0.00 0.01 0.01 0.02 0.01 0.01 0.01 0.01 0.01 0.02 0.03 0.04 0.03 0.04 0.05 0.05 0.06 0.06 0.06 0.06 0.06 0.07 0.07 0.08 0.08 0.08 0.08 0.07 0.06 0.06 0.05 0.04 0.04 0.03 0.04 0.03 0.02 0.02 0.02
0.01 0.02 0.02 0.01 0.01 0.01 0.01 0.02 0.02 0.01 0.01 0.01 0.01 0.01 0.01 0.01 0.02 0.04 0.05 0.06 0.06 0.06 0.06 0.06 0.06 0.06 0.07 0.07 0.07 0.08 0.09 0.11 0.11 0.09 0.08 0.07 0.07 0.06 0.06 0.05 0.05 0.04 0.04 0.04
0.01 0.02 0.03 0.04 0.03 0.02 0.02 0.02 0.02 0.02 0.03 0.02 0.02 0.02 0.02 0.02 0.02 0.03 0.04 0.04 0.05 0.05 0.05 0.05 0.06 0.06 0.07 0.07 0.07 0.08 0.08 0.09 0.10 0.09 0.09 0.08 0.07 0.07 0.06 0.05 0.05 0.05 0.05 0.06
0.04 0.03 0.03 0.04 0.06 0.06 0.05 0.04 0.04 0.04 0.04 0.03 0.04 0.04 0.03 0.02 0.02 0.03 0.03 0.03 0.04 0.05 0.05 0.06 0.07 0.07 0.07 0.07 0.07 0.08 0.08 0.10 0.10 0.08 0.08 0.08 0.08 0.06 0.06 0.05 0.05 0.04 0.04 0.04
0.11 0.09 0.09 0.10 0.08 0.09 0.08 0.07 0.06 0.05 0.05 0.05 0.04 0.04 0.04 0.03 0.03 0.03 0.03 0.04 0.04 0.04 0.05 0.06 0.07 0.07 0.07 0.07 0.07 0.07 0.08 0.10 0.13 0.10 0.07 0.07 0.07 0.07 0.06 0.05 0.05 0.04 0.04 0.04
0.13 0.14 0.14 0.17 0.17 0.15 0.13 0.11 0.09 0.08 0.07 0.07 0.07 0.06 0.05 0.04 0.04 0.04 0.04 0.05 0.05 0.05 0.06 0.06 0.06 0.06 0.06 0.07 0.07 0.07 0.08 0.08 0.09 0.08 0.08 0.08 0.09 0.08 0.08 0.07 0.06 0.05 0.05 0.06
0.13 0.13 0.13 0.15 0.18 0.18 0.17 0.15 0.14 0.13 0.11 0.10 0.09 0.08 0.07 0.06 0.06 0.05 0.05 0.06 0.06 0.06 0.06 0.07 0.08 0.08 0.07 0.08 0.10 0.08 0.08 0.08 0.08 0.09 0.09 0.12 0.12 0.09 0.08 0.08 0.07 0.07 0.07 0.06
0.15 0.15 0.15 0.17 0.19 0.19 0.19 0.18 0.17 0.16 0.16 0.14 0.13 0.11 0.10 0.09 0.09 0.08 0.07 0.07 0.07 0.08 0.08 0.09 0.09 0.08 0.08 0.08 0.11 0.09 0.08 0.08 0.09 0.10 0.11 0.12 0.11 0.10 0.09 0.09 0.08 0.08 0.07 0.07
0.19 0.17 0.16 0.17 0.19 0.20 0.19 0.19 0.19 0.20 0.20 0.18 0.17 0.15 0.14 0.13 0.13 0.12 0.11 0.10 0.09 0.09 0.09 0.10 0.09 0.09 0.10 0.11 0.13 0.11 0.10 0.10 0.10 0.11 0.12 0.12 0.12 0.11 0.10 0.09 0.08 0.08 0.07 0.06
0.18 0.18 0.17 0.17 0.19 0.21 0.21 0.20 0.19 0.20 0.19 0.18 0.18 0.17 0.16 0.15 0.13 0.12 0.12 0.12 0.11 0.12 0.11 0.10 0.09 0.11 0.12 0.13 0.12 0.11 0.12 0.13 0.13 0.13 0.13 0.12 0.11 0.09 0.08 0.08 0.08 0.07 0.07 0.06
0.16 0.17 0.16 0.15 0.15 0.15 0.15 0.15 0.16 0.17 0.18 0.18 0.18 0.18 0.17 0.16 0.14 0.14 0.13 0.12 0.11 0.12 0.12 0.11 0.13 0.15 0.15 0.14 0.13 0.13 0.14 0.14 0.13 0.12 0.12 0.11 0.10 0.09 0.08 0.08 0.07 0.07 0.06 0.06
0.10 0.10 0.11 0.10 0.10 0.11 0.12 0.13 0.13 0.14 0.15 0.15 0.15 0.14 0.14 0.13 0.12 0.11 0.11 0.12 0.13 0.14 0.13 0.14 0.15 0.15 0.15 0.14 0.14 0.15 0.15 0.14 0.13 0.12 0.11 0.10 0.09 0.08 0.07 0.07 0.06 0.05 0.05 0.04
0.07 0.07 0.06 0.06 0.07 0.07 0.07 0.08 0.09 0.10 0.12 0.12 0.12 0.11 0.11 0.11 0.12 0.12 0.11 0.10 0.12 0.13 0.13 0.14 0.15 0.14 0.14 0.13 0.14 0.14 0.14 0.13 0.12 0.10 0.09 0.08 0.07 0.07 0.06 0.06 0.05 0.04 0.04 0.03
0.06 0.05 0.05 0.05 0.05 0.05 0.05 0.06 0.06 0.06 0.08 0.10 0.10 0.11 0.12 0.13 0.12 0.12 0.12 0.11 0.12 0.13 0.13 0.12 0.12 0.13 0.13 0.12 0.12 0.11 0.10 0.09 0.09 0.08 0.07 0.06 0.06 0.05 0.05 0.04 0.04 0.03 0.03 0.03
0.04 0.04 0.04 0.04 0.04 0.04 0.04 0.04 0.05 0.05 0.06 0.07 0.08 0.10 0.11 0.12 0.11 0.11 0.11 0.11 0.12 0.12 0.11 0.10 0.10 0.11 0.11 0.10 0.09 0.08 0.07 0.06 0.05 0.05 0.05 0.04 0.04 0.04 0.04 0.03 0.03 0.03 0.03 0.03

GEFSNGP_prec_meanprecacc_078.txt.gz
Total_Precipitation_Accumulation
0.21 0.28 0.43 0.36 0.21 0.19 0.32 0.23 0.19 0.07 0.06 0.08 0.11 0.16 0.17 0.14 0.10 0.06 0.04 0.04 0.04 0.04 0.04 0.05 0.05 0.07 0.08 0.10 0.14 0.17 0.18 0.17 0.16 0.16 0.17 0.16 0.15 0.12 0.10 0.08 0.06 0.05 0.06 0.06
0.29 0.27 0.37 0.30 0.14 0.12 0.13 0.09 0.09 0.07 0.09 0.09 0.14 0.20 0.23 0.19 0.12 0.06 0.04 0.03 0.03 0.03 0.03 0.03 0.04 0.07 0.10 0.14 0.21 0.25 0.26 0.22 0.18 0.18 0.18 0.16 0.14 0.12 0.10 0.08 0.07 0.06 0.07 0.08
0.47 0.24 0.28 0.24 0.13 0.12 0.11 0.07 0.07 0.10 0.10 0.11 0.19 0.24 0.21 0.15 0.09 0.05 0.03 0.03 0.02 0.02 0.01 0.02 0.04 0.11 0.18 0.23 0.29 0.31 0.34 0.32 0.26 0.23 0.21 0.17 0.15 0.16 0.18 0.18 0.18 0.18 0.19 0.20
0.59 0.38 0.37 0.24 0.17 0.15 0.12 0.08 0.06 0.06 0.06 0.08 0.13 0.15 0.13 0.09 0.07 0.04 0.03 0.02 0.02 0.03 0.02 0.03 0.06 0.14 0.21 0.28 0.38 0.39 0.39 0.38 0.37 0.37 0.38 0.38 0.38 0.39 0.39 0.38 0.38 0.40 0.42 0.43
0.41 0.31 0.17 0.08 0.10 0.11 0.12 0.10 0.04 0.04 0.04 0.03 0.06 0.11 0.16 0.12 0.09 0.06 0.03 0.02 0.01 0.02 0.03 0.03 0.06 0.13 0.20 0.32 0.45 0.54 0.57 0.56 0.57 0.59 0.64 0.68 0.70 0.69 0.68 0.69 0.68 0.65 0.60 0.54
0.26 0.22 0.09 0.04 0.02 0.03 0.05 0.08 0.02 0.01 0.02 0.02 0.03 0.09 0.15 0.16 0.13 0.11 0.08 0.06 0.05 0.04 0.06 0.08 0.11 0.17 0.29 0.45 0.59 0.68 0.69 0.72 0.75 0.78 0.82 0.79 0.79 0.76 0.68 0.62 0.60 0.58 0.54 0.50
0.21 0.18 0.04 0.01 0.00 0.01 0.05 0.07 0.01 0.01 0.01 0.01 0.02 0.04 0.06 0.10 0.14 0.14 0.15 0.17 0.17 0.18 0.20 0.22 0.25 0.33 0.47 0.58 0.66 0.68 0.68 0.68 0.70 0.67 0.64 0.58 0.56 0.53 0.48 0.43 0.37 0.32 0.28 0.23
0.09 0.13 0.06 0.01 0.01 0.02 0.03 0.01 0.01 0.01 0.01 0.02 0.02 0.02 0.03 0.04 0.07 0.12 0.16 0.22 0.28 0.34 0.37 0.37 0.39 0.45 0.52 0.54 0.54 0.51 0.49 0.46 0.43 0.37 0.31 0.27 0.25 0.23 0.21 0.18 0.16 0.12 0.09 0.07
0.05 0.07 0.03 0.01 0.01 0.02 0.01 0.02 0.01 0.01 0.01 0.02 0.02 0.02 0.02 0.02 0.03 0.05 0.07 0.09 0.14 0.20 0.24 0.24 0.24 0.26 0.28 0.26 0.22 0.19 0.16 0.14 0.12 0.10 0.08 0.07 0.05 0.04 0.04 0.03 0.03 0.02 0.02 0.01
0.04 0.04 0.02 0.02 0.02 0.02 0.02 0.02 0.02 0.02 0.03 0.03 0.03 0.03 0.03 0.02 0.02 0.02 0.03 0.03 0.04 0.06 0.07 0.07 0.07 0.08 0.08 0.06 0.04 0.03 0.03 0.02 0.02 0.02 0.02 0.02 0.02 0.02 0.02 0.01 0.01 0.00 0.00 0.00
0.04 0.03 0.02 0.02 0.02 0.01 0.01 0.01 0.02 0.02 0.02 0.03 0.04 0.04 0.04 0.04 0.03 0.03 0.03 0.03 0.03 0.04 0.04 0.04 0.04 0.04 0.04 0.04 0.03 0.03 0.02 0.02 0.02 0.02 0.02 0.02 0.02 0.02 0.03 0.02 0.02 0.02 0.01 0.01
0.06 0.03 0.02 0.01 0.01 0.01 0.01 0.01 0.01 0.02 0.02 0.02 0.02 0.03 0.03 0.03 0.04 0.04 0.05 0.04 0.04 0.04 0.05 0.05 0.06 0.06 0.07 0.06 0.06 0.06 0.06 0.05 0.05 0.04 0.04 0.04 0.04 0.04 0.05 0.05 0.05 0.04 0.03 0.02
0.03 0.02 0.02 0.01 0.00 0.00 0.01 0.01 0.02 0.01 0.01 0.01 0.01 0.01 0.02 0.03 0.04 0.04 0.05 0.05 0.06 0.06 0.06 0.06 0.06 0.06 0.07 0.08 0.09 0.09 0.09 0.10 0.10 0.09 0.09 0.08 0.07 0.07 0.06 0.07 0.07 0.06 0.04 0.03
0.01 0.02 0.02 0.01 0.01 0.01 0.01 0.02 0.02 0.01 0.01 0.01 0.01 0.01 0.01 0.01 0.03 0.04 0.05 0.06 0.06 0.06 0.06 0.06 0.06 0.07 0.07 0.08 0.09 0.10 0.11 0.14 0.15 0.14 0.14 0.14 0.12 0.11 0.10 0.09 0.08 0.07 0.07 0.07
0.01 0.02 0.03 0.04 0.03 0.02 0.02 0.02 0.02 0.02 0.03 0.02 0.03 0.02 0.02 0.02 0.02 0.03 0.04 0.04 0.05 0.05 0.05 0.05 0.06 0.07 0.08 0.08 0.09 0.09 0.10 0.11 0.13 0.14 0.16 0.16 0.15 0.14 0.12 0.10 0.09 0.08 0.08 0.09
0.04 0.03 0.03 0.04 0.06 0.06 0.05 0.04 0.04 0.04 0.04 0.03 0.04 0.04 0.04 0.03 0.03 0.03 0.03 0.03 0.04 0.05 0.05 0.06 0.07 0.07 0.08 0.08 0.09 0.10 0.10 0.14 0.14 0.13 0.13 0.15 0.15 0.14 0.12 0.10 0.08 0.07 0.06 0.06
0.11 0.09 0.09 0.10 0.08 0.09 0.08 0.07 0.06 0.05 0.05 0.05 0.05 0.04 0.04 0.04 0.03 0.03 0.03 0.04 0.04 0.05 0.06 0.07 0.08 0.08 0.08 0.09 0.09 0.10 0.11 0.14 0.18 0.15 0.12 0.12 0.12 0.12 0.11 0.10 0.08 0.07 0.06 0.07
0.13 0.14 0.14 0.17 0.17 0.15 0.13 0.11 0.09 0.08 0.07 0.07 0.07 0.06 0.05 0.05 0.05 0.04 0.05 0.05 0.05 0.06 0.06 0.07 0.08 0.08 0.08 0.09 0.10 0.10 0.11 0.12 0.14 0.13 0.13 0.13 0.14 0.13 0.13 0.12 0.10 0.09 0.08 0.09
0.13 0.13 0.13 0.15 0.18 0.18 0.17 0.15 0.14 0.13 0.11 0.10 0.09 0.08 0.07 0.07 0.06 0.06 0.06 0.06 0.07 0.07 0.07 0.08 0.10 0.10 0.09 0.10 0.13 0.12 0.12 0.13 0.14 0.14 0.15 0.17 0.18 0.14 0.13 0.12 0.12 0.11 0.10 0.10
0.15 0.15 0.15 0.17 0.19 0.19 0.19 0.18 0.17 0.17 0.16 0.14 0.13 0.11 0.10 0.10 0.10 0.09 0.08 0.08 0.08 0.09 0.09 0.10 0.11 0.10 0.10 0.11 0.14 0.13 0.13 0.13 0.14 0.15 0.16 0.16 0.16 0.15 0.13 0.13 0.12 0.12 0.11 0.11
0.19 0.17 0.16 0.17 0.19 0.20 0.19 0.19 0.19 0.20 0.20 0.18 0.17 0.16 0.14 0.13 0.13 0.13 0.13 0.11 0.10 0.10 0.11 0.12 0.11 0.11 0.12 0.14 0.17 0.15 0.15 0.16 0.16 0.16 0.16 0.16 0.16 0.15 0.14 0.13 0.12 0.11 0.11 0.10
0.18 0.18 0.17 0.17 0.19 0.21 0.21 0.20 0.19 0.20 0.19 0.18 0.18 0.17 0.16 0.15 0.14 0.13 0.13 0.13 0.13 0.14 0.14 0.12 0.12 0.14 0.16 0.18 0.17 0.16 0.17 0.19 0.19 0.18 0.18 0.16 0.15 0.13 0.12 0.12 0.12 0.11 0.10 0.10
0.16 0.17 0.16 0.15 0.15 0.15 0.15 0.15 0.16 0.17 0.18 0.18 0.18 0.18 0.17 0.16 0.15 0.15 0.15 0.13 0.13 0.14 0.15 0.14 0.16 0.19 0.20 0.19 0.18 0.19 0.21 0.21 0.20 0.18 0.17 0.16 0.15 0.13 0.12 0.11 0.10 0.10 0.09 0.08
0.10 0.10 0.11 0.10 0.10 0.11 0.12 0.13 0.13 0.14 0.15 0.15 0.15 0.15 0.14 0.13 0.12 0.12 0.13 0.13 0.15 0.17 0.17 0.17 0.19 0.20 0.20 0.19 0.20 0.22 0.22 0.21 0.20 0.18 0.17 0.15 0.13 0.11 0.10 0.09 0.09 0.07 0.07 0.06
0.07 0.07 0.06 0.06 0.07 0.07 0.07 0.08 0.09 0.10 0.12 0.12 0.12 0.12 0.12 0.12 0.13 0.13 0.12 0.11 0.13 0.15 0.16 0.17 0.18 0.18 0.18 0.18 0.19 0.20 0.20 0.19 0.18 0.16 0.14 0.13 0.11 0.10 0.09 0.08 0.07 0.06 0.06 0.05
0.06 0.05 0.05 0.05 0.05 0.05 0.05 0.06 0.06 0.06 0.08 0.10 0.10 0.11 0.12 0.13 0.13 0.13 0.13 0.12 0.13 0.15 0.15 0.15 0.15 0.16 0.17 0.17 0.17 0.16 0.15 0.15 0.14 0.12 0.11 0.11 0.10 0.08 0.07 0.06 0.05 0.05 0.05 0.04
0.04 0.04 0.04 0.04 0.04 0.04 0.04 0.05 0.05 0.05 0.06 0.07 0.09 0.10 0.11 0.12 0.12 0.12 0.12 0.12 0.13 0.14 0.14 0.13 0.13 0.14 0.15 0.15 0.14 0.13 0.11 0.10 0.09 0.09 0.08 0.08 0.07 0.06 0.06 0.05 0.05 0.05 0.04 0.04

GEFSNGP_prec_meanprecacc_084.txt.gz
Total_Precipitation_Accumulation
0.22 0.28 0.44 0.37 0.21 0.19 0.32 0.24 0.21 0.09 0.08 0.09 0.11 0.16 0.17 0.14 0.10 0.06 0.04 0.04 0.04 0.04 0.04 0.05 0.05 0.07 0.08 0.10 0.14 0.17 0.18 0.17 0.16 0.16 0.17 0.17 0.15 0.13 0.10 0.09 0.07 0.06 0.06 0.07
0.29 0.27 0.38 0.30 0.15 0.13 0.14 0.11 0.10 0.08 0.10 0.11 0.15 0.20 0.23 0.19 0.12 0.06 0.04 0.04 0.03 0.03 0.03 0.03 0.04 0.07 0.10 0.15 0.21 0.26 0.27 0.23 0.19 0.18 0.18 0.16 0.14 0.13 0.11 0.09 0.07 0.07 0.07 0.08
0.47 0.24 0.28 0.24 0.13 0.12 0.11 0.08 0.08 0.11 0.11 0.11 0.19 0.24 0.21 0.16 0.09 0.05 0.04 0.03 0.03 0.02 0.02 0.02 0.05 0.11 0.18 0.23 0.29 0.31 0.34 0.32 0.26 0.24 0.21 0.17 0.15 0.16 0.18 0.19 0.19 0.19 0.19 0.20
0.59 0.38 0.37 0.24 0.17 0.15 0.12 0.08 0.06 0.07 0.06 0.08 0.13 0.15 0.13 0.10 0.08 0.05 0.03 0.02 0.02 0.03 0.03 0.03 0.06 0.14 0.21 0.28 0.38 0.39 0.39 0.38 0.38 0.38 0.38 0.38 0.38 0.39 0.39 0.38 0.39 0.41 0.43 0.44
0.41 0.31 0.17 0.09 0.10 0.12 0.12 0.10 0.05 0.04 0.04 0.03 0.06 0.12 0.16 0.13 0.10 0.07 0.04 0.02 0.02 0.02 0.03 0.04 0.07 0.13 0.21 0.32 0.45 0.54 0.57 0.56 0.57 0.60 0.64 0.68 0.70 0.69 0.68 0.69 0.68 0.65 0.61 0.55
0.26 0.22 0.09 0.04 0.02 0.03 0.05 0.08 0.02 0.02 0.02 0.02 0.04 0.09 0.16 0.17 0.13 0.11 0.09 0.07 0.05 0.05 0.06 0.09 0.12 0.17 0.30 0.46 0.59 0.68 0.69 0.72 0.75 0.78 0.82 0.79 0.79 0.76 0.68 0.63 0.60 0.58 0.55 0.51
0.21 0.19 0.04 0.01 0.00 0.01 0.05 0.07 0.02 0.01 0.01 0.01 0.02 0.05 0.06 0.11 0.15 0.14 0.15 0.17 0.17 0.18 0.20 0.22 0.25 0.34 0.47 0.58 0.66 0.69 0.68 0.68 0.70 0.67 0.64 0.58 0.56 0.54 0.49 0.43 0.38 0.33 0.28 0.24
0.09 0.13 0.06 0.01 0.01 0.02 0.03 0.01 0.01 0.01 0.01 0.02 0.02 0.02 0.03 0.04 0.08 0.12 0.16 0.22 0.29 0.34 0.37 0.37 0.40 0.46 0.52 0.54 0.54 0.51 0.49 0.46 0.43 0.37 0.31 0.27 0.25 0.24 0.21 0.18 0.16 0.13 0.10 0.08
0.05 0.07 0.03 0.01 0.01 0.02 0.01 0.02 0.01 0.01 0.01 0.02 0.02 0.02 0.02 0.02 0.03 0.05 0.07 0.09 0.14 0.20 0.24 0.25 0.25 0.27 0.29 0.26 0.23 0.19 0.16 0.14 0.12 0.10 0.08 0.07 0.05 0.05 0.04 0.04 0.04 0.04 0.04 0.03
0.04 0.04 0.02 0.02 0.02 0.02 0.02 0.02 0.02 0.02 0.03 0.03 0.03 0.03 0.03 0.02 0.02 0.03 0.03 0.03 0.04 0.06 0.07 0.07 0.08 0.08 0.08 0.07 0.05 0.04 0.03 0.02 0.02 0.02 0.02 0.03 0.03 0.03 0.03 0.02 0.03 0.02 0.02 0.02
0.04 0.03 0.02 0.02 0.02 0.01 0.01 0.01 0.02 0.02 0.02 0.03 0.04 0.04 0.04 0.04 0.03 0.03 0.03 0.03 0.04 0.04 0.04 0.04 0.04 0.05 0.05 0.05 0.04 0.04 0.03 0.02 0.02 0.03 0.03 0.03 0.03 0.03 0.04 0.04 0.04 0.05 0.04 0.03
0.06 0.03 0.02 0.01 0.01 0.01 0.01 0.01 0.01 0.02 0.02 0.02 0.02 0.04 0.03 0.03 0.04 0.04 0.05 0.04 0.04 0.04 0.05 0.06 0.06 0.07 0.07 0.07 0.07 0.07 0.06 0.06 0.05 0.05 0.05 0.05 0.05 0.05 0.07 0.07 0.08 0.08 0.07 0.06
0.03 0.02 0.02 0.01 0.00 0.00 0.01 0.01 0.02 0.01 0.01 0.01 0.01 0.01 0.02 0.03 0.04 0.04 0.05 0.06 0.06 0.06 0.07 0.06 0.06 0.07 0.08 0.09 0.10 0.11 0.11 0.12 0.11 0.11 0.10 0.09 0.09 0.09 0.09 0.10 0.11 0.10 0.09 0.09
0.01 0.02 0.02 0.01 0.01 0.01 0.01 0.02 0.02 0.01 0.01 0.01 0.01 0.01 0.01 0.01 0.03 0.04 0.05 0.06 0.06 0.06 0.06 0.06 0.07 0.07 0.08 0.09 0.10 0.11 0.12 0.15 0.17 0.15 0.16 0.16 0.14 0.14 0.14 0.14 0.13 0.12 0.12 0.13
0.01 0.02 0.03 0.04 0.03 0.02 0.02 0.02 0.02 0.02 0.03 0.02 0.03 0.02 0.02 0.02 0.02 0.03 0.04 0.04 0.05 0.05 0.05 0.06 0.06 0.07 0.08 0.09 0.10 0.10 0.11 0.12 0.15 0.16 0.17 0.18 0.18 0.18 0.17 0.15 0.13 0.12 0.12 0.15
0.04 0.03 0.03 0.04 0.06 0.06 0.05 0.04 0.04 0.04 0.04 0.03 0.04 0.04 0.04 0.03 0.03 0.03 0.03 0.03 0.05 0.05 0.06 0.07 0.07 0.08 0.08 0.09 0.11 0.12 0.12 0.15 0.16 0.15 0.16 0.17 0.18 0.17 0.16 0.14 0.13 0.12 0.11 0.11
0.11 0.09 0.09 0.10 0.08 0.09 0.08 0.07 0.06 0.05 0.05 0.05 0.05 0.04 0.04 0.04 0.03 0.03 0.04 0.04 0.04 0.05 0.06 0.08 0.09 0.09 0.10 0.10 0.12 0.12 0.13 0.17 0.21 0.18 0.15 0.15 0.16 0.16 0.15 0.14 0.13 0.11 0.10 0.13
0.13 0.14 0.14 0.17 0.17 0.15 0.13 0.11 0.09 0.08 0.07 0.07 0.07 0.06 0.05 0.05 0.05 0.04 0.05 0.05 0.05 0.06 0.07 0.08 0.09 0.09 0.09 0.11 0.12 0.13 0.14 0.16 0.18 0.17 0.17 0.18 0.19 0.18 0.18 0.17 0.15 0.14 0.14 0.17
0.13 0.13 0.13 0.15 0.18 0.18 0.17 0.15 0.14 0.13 0.11 0.10 0.09 0.08 0.07 0.07 0.07 0.06 0.06 0.07 0.07 0.07 0.07 0.08 0.11 0.11 0.10 0.12 0.15 0.15 0.15 0.16 0.17 0.18 0.19 0.22 0.24 0.20 0.19 0.18 0.18 0.18 0.17 0.17
0.15 0.15 0.15 0.17 0.19 0.19 0.19 0.18 0.17 0.17 0.16 0.14 0.13 0.11 0.10 0.10 0.10 0.09 0.09 0.08 0.09 0.10 0.10 0.11 0.12 0.11 0.11 0.12 0.16 0.15 0.16 0.16 0.17 0.18 0.20 0.21 0.21 0.19 0.19 0.18 0.18 0.18 0.17 0.17
0.19 0.17 0.16 0.17 0.19 0.20 0.19 0.19 0.19 0.20 0.20 0.18 0.17 0.16 0.14 0.13 0.13 0.14 0.13 0.11 0.10 0.11 0.12 0.13 0.12 0.12 0.14 0.17 0.19 0.18 0.18 0.19 0.19 0.20 0.20 0.21 0.20 0.19 0.18 0.18 0.17 0.17 0.16 0.16
0.18 0.18 0.17 0.17 0.19 0.21 0.21 0.20 0.19 0.20 0.19 0.18 0.18 0.17 0.16 0.15 0.14 0.13 0.13 0.14 0.13 0.15 0.15 0.13 0.13 0.17 0.20 0.21 0.20 0.19 0.20 0.22 0.22 0.22 0.22 0.21 0.20 0.18 0.17 0.17 0.17 0.15 0.15 0.14
0.16 0.17 0.16 0.15 0.15 0.15 0.15 0.15 0.16 0.17 0.18 0.18 0.19 0.18 0.18 0.16 0.15 0.16 0.15 0.14 0.14 0.16 0.17 0.16 0.19 0.23 0.24 0.23 0.22 0.23 0.25 0.25 0.24 0.23 0.22 0.21 0.20 0.19 0.17 0.17 0.16 0.15 0.14 0.13
0.10 0.10 0.11 0.10 0.10 0.11 0.12 0.13 0.13 0.14 0.15 0.15 0.15 0.15 0.14 0.14 0.13 0.12 0.13 0.14 0.16 0.18 0.18 0.19 0.23 0.23 0.23 0.23 0.24 0.26 0.27 0.26 0.25 0.23 0.22 0.20 0.18 0.17 0.16 0.15 0.14 0.12 0.11 0.11
0.07 0.07 0.06 0.06 0.07 0.07 0.07 0.08 0.09 0.10 0.12 0.12 0.12 0.12 0.12 0.12 0.14 0.13 0.12 0.12 0.14 0.17 0.17 0.18 0.20 0.21 0.21 0.22 0.23 0.24 0.24 0.24 0.24 0.22 0.20 0.19 0.17 0.16 0.14 0.13 0.13 0.12 0.10 0.09
0.06 0.05 0.05 0.05 0.05 0.05 0.06 0.06 0.06 0.06 0.08 0.10 0.11 0.11 0.12 0.13 0.13 0.13 0.13 0.13 0.14 0.16 0.16 0.16 0.17 0.19 0.20 0.20 0.21 0.21 0.20 0.20 0.19 0.18 0.17 0.16 0.15 0.14 0.12 0.11 0.10 0.09 0.09 0.08
0.04 0.04 0.04 0.04 0.04 0.04 0.04 0.05 0.05 0.06 0.06 0.07 0.09 0.10 0.12 0.12 0.12 0.12 0.12 0.13 0.14 0.14 0.15 0.15 0.15 0.17 0.17 0.18 0.18 0.17 0.16 0.15 0.14 0.14 0.13 0.13 0.12 0.11 0.10 0.09 0.08 0.08 0.08 0.07

GEFSNGP_prec_meanprecacc_090.txt.gz
Total_Precipitation_Accumulation
0.23 0.29 0.44 0.38 0.21 0.20 0.33 0.25 0.23 0.11 0.11 0.13 0.14 0.18 0.18 0.15 0.11 0.08 0.06 0.05 0.05 0.06 0.05 0.06 0.07 0.08 0.09 0.11 0.15 0.18 0.19 0.18 0.17 0.18 0.18 0.18 0.16 0.14 0.12 0.11 0.09 0.08 0.09 0.10
0.29 0.27 0.38 0.30 0.15 0.13 0.14 0.11 0.11 0.09 0.12 0.12 0.16 0.21 0.24 0.20 0.13 0.07 0.05 0.04 0.04 0.04 0.04 0.04 0.06 0.09 0.12 0.16 0.22 0.27 0.27 0.23 0.20 0.19 0.18 0.17 0.15 0.14 0.12 0.10 0.09 0.08 0.09 0.10
0.48 0.24 0.28 0.24 0.13 0.12 0.11 0.08 0.09 0.12 0.12 0.12 0.20 0.24 0.21 0.16 0.10 0.06 0.05 0.04 0.04 0.03 0.03 0.03 0.06 0.13 0.20 0.25 0.31 0.33 0.36 0.33 0.28 0.25 0.22 0.18 0.16 0.17 0.19 0.20 0.20 0.20 0.21 0.22
0.59 0.38 0.37 0.24 0.17 0.15 0.12 0.08 0.06 0.07 0.06 0.08 0.13 0.15 0.13 0.10 0.08 0.05 0.03 0.03 0.03 0.03 0.03 0.04 0.07 0.15 0.23 0.29 0.40 0.41 0.41 0.40 0.39 0.39 0.39 0.39 0.38 0.39 0.40 0.39 0.40 0.42 0.44 0.45
0.41 0.32 0.17 0.09 0.10 0.12 0.12 0.10 0.05 0.04 0.04 0.03 0.06 0.12 0.16 0.13 0.10 0.07 0.04 0.02 0.02 0.02 0.03 0.04 0.07 0.13 0.21 0.33 0.47 0.56 0.59 0.58 0.58 0.61 0.65 0.69 0.71 0.69 0.69 0.70 0.69 0.66 0.63 0.57
0.27 0.22 0.09 0.04 0.02 0.03 0.05 0.08 0.02 0.02 0.02 0.02 0.04 0.09 0.16 0.17 0.13 0.11 0.09 0.07 0.05 0.05 0.06 0.09 0.12 0.18 0.30 0.46 0.60 0.69 0.71 0.73 0.76 0.80 0.85 0.82 0.80 0.77 0.69 0.63 0.61 0.59 0.57 0.53
0.21 0.19 0.04 0.01 0.00 0.01 0.05 0.08 0.02 0.01 0.01 0.01 0.02 0.05 0.06 0.11 0.15 0.14 0.15 0.17 0.17 0.18 0.20 0.22 0.25 0.34 0.47 0.58 0.66 0.69 0.69 0.69 0.71 0.68 0.67 0.62 0.60 0.57 0.51 0.45 0.39 0.34 0.30 0.26
0.09 0.13 0.06 0.01 0.01 0.02 0.03 0.01 0.01 0.01 0.01 0.02 0.02 0.02 0.03 0.04 0.08 0.12 0.16 0.22 0.29 0.34 0.37 0.37 0.40 0.46 0.52 0.54 0.54 0.52 0.49 0.47 0.43 0.38 0.32 0.29 0.28 0.28 0.25 0.22 0.19 0.15 0.12 0.10
0.05 0.07 0.03 0.01 0.01 0.02 0.01 0.02 0.01 0.01 0.01 0.02 0.02 0.02 0.02 0.02 0.03 0.05 0.07 0.09 0.14 0.20 0.24 0.25 0.25 0.27 0.29 0.26 0.23 0.19 0.16 0.14 0.13 0.10 0.09 0.07 0.06 0.06 0.07 0.07 0.07 0.07 0.06 0.06
0.04 0.04 0.02 0.02 0.02 0.02 0.02 0.02 0.02 0.02 0.03 0.03 0.03 0.03 0.03 0.02 0.02 0.03 0.03 0.03 0.04 0.06 0.07 0.07 0.08 0.08 0.09 0.07 0.05 0.04 0.03 0.03 0.03 0.03 0.03 0.03 0.03 0.03 0.04 0.05 0.05 0.05 0.05 0.04
0.04 0.03 0.02 0.02 0.02 0.01 0.01 0.01 0.02 0.02 0.02 0.03 0.04 0.04 0.04 0.04 0.03 0.03 0.03 0.03 0.04 0.04 0.04 0.04 0.04 0.05 0.05 0.05 0.04 0.04 0.03 0.03 0.03 0.03 0.04 0.03 0.03 0.04 0.05 0.05 0.06 0.07 0.07 0.07
0.06 0.03 0.02 0.01 0.01 0.01 0.01 0.01 0.01 0.02 0.02 0.02 0.02 0.04 0.03 0.03 0.04 0.04 0.05 0.04 0.04 0.04 0.05 0.06 0.06 0.07 0.07 0.07 0.08 0.07 0.07 0.06 0.06 0.06 0.07 0.07 0.07 0.07 0.08 0.08 0.10 0.10 0.10 0.09
0.03 0.02 0.02 0.01 0.00 0.00 0.01 0.01 0.02 0.01 0.01 0.01 0.01 0.01 0.02 0.03 0.04 0.04 0.05 0.06 0.06 0.06 0.07 0.06 0.06 0.07 0.08 0.10 0.11 0.12 0.12 0.13 0.13 0.13 0.12 0.11 0.11 0.11 0.11 0.12 0.14 0.13 0.13 0.13
0.01 0.02 0.02 0.01 0.01 0.01 0.01 0.02 0.02 0.01 0.01 0.01 0.01 0.01 0.01 0.01 0.03 0.04 0.05 0.06 0.06 0.06 0.06 0.06 0.07 0.07 0.08 0.09 0.10 0.11 0.13 0.17 0.19 0.18 0.19 0.19 0.18 0.17 0.17 0.16 0.16 0.15 0.15 0.17
0.01 0.02 0.03 0.04 0.03 0.02 0.02 0.02 0.02 0.02 0.03 0.02 0.03 0.02 0.02 0.02 0.02 0.03 0.04 0.04 0.05 0.06 0.05 0.06 0.06 0.07 0.08 0.09 0.10 0.11 0.12 0.14 0.17 0.19 0.21 0.22 0.21 0.21 0.20 0.18 0.16 0.15 0.15 0.18
0.04 0.03 0.03 0.04 0.06 0.06 0.05 0.04 0.04 0.04 0.04 0.03 0.04 0.04 0.04 0.03 0.03 0.03 0.03 0.03 0.05 0.05 0.06 0.07 0.07 0.08 0.09 0.10 0.11 0.12 0.13 0.17 0.19 0.18 0.19 0.21 0.22 0.21 0.19 0.18 0.17 0.15 0.14 0.15
0.11 0.09 0.09 0.10 0.08 0.09 0.08 0.07 0.06 0.05 0.05 0.05 0.05 0.04 0.04 0.04 0.03 0.03 0.04 0.04 0.04 0.05 0.06 0.08 0.09 0.10 0.10 0.11 0.13 0.14 0.15 0.18 0.23 0.20 0.18 0.19 0.21 0.21 0.20 0.18 0.17 0.16 0.14 0.17
0.13 0.14 0.14 0.17 0.17 0.15 0.13 0.11 0.09 0.08 0.07 0.07 0.07 0.06 0.05 0.05 0.05 0.04 0.05 0.05 0.05 0.06 0.07 0.08 0.09 0.10 0.10 0.11 0.14 0.15 0.16 0.17 0.19 0.20 0.20 0.22 0.24 0.23 0.23 0.22 0.20 0.19 0.18 0.22
0.13 0.13 0.13 0.15 0.18 0.18 0.17 0.15 0.14 0.13 0.11 0.10 0.09 0.08 0.08 0.07 0.07 0.06 0.06 0.07 0.07 0.08 0.07 0.08 0.11 0.11 0.11 0.12 0.17 0.17 0.17 0.18 0.19 0.21 0.23 0.27 0.29 0.25 0.25 0.24 0.23 0.24 0.24 0.24
0.15 0.15 0.15 0.17 0.19 0.19 0.19 0.18 0.17 0.17 0.16 0.14 0.13 0.11 0.10 0.10 0.10 0.09 0.09 0.09 0.09 0.10 0.11 0.12 0.13 0.12 0.12 0.13 0.18 0.18 0.18 0.19 0.21 0.22 0.24 0.26 0.26 0.25 0.24 0.24 0.24 0.25 0.24 0.23
0.19 0.17 0.16 0.17 0.19 0.20 0.19 0.19 0.19 0.20 0.20 0.18 0.17 0.16 0.14 0.13 0.14 0.14 0.13 0.12 0.10 0.11 0.12 0.13 0.13 0.14 0.16 0.19 0.22 0.20 0.21 0.22 0.22 0.23 0.24 0.25 0.25 0.24 0.24 0.23 0.23 0.23 0.22 0.22
0.18 0.18 0.17 0.17 0.19 0.21 0.21 0.20 0.19 0.20 0.19 0.18 0.18 0.17 0.16 0.15 0.14 0.13 0.13 0.14 0.13 0.15 0.16 0.14 0.14 0.19 0.23 0.25 0.23 0.22 0.23 0.24 0.25 0.26 0.26 0.24 0.24 0.23 0.22 0.22 0.22 0.21 0.21 0.20
0.16 0.17 0.16 0.15 0.15 0.15 0.15 0.15 0.16 0.17 0.18 0.18 0.19 0.18 0.18 0.16 0.16 0.16 0.15 0.14 0.14 0.16 0.17 0.17 0.20 0.25 0.27 0.25 0.24 0.26 0.28 0.28 0.28 0.27 0.26 0.25 0.24 0.23 0.23 0.22 0.21 0.20 0.19 0.18
0.10 0.10 0.11 0.10 0.10 0.11 0.12 0.13 0.13 0.14 0.15 0.15 0.15 0.15 0.15 0.14 0.13 0.12 0.13 0.14 0.16 0.19 0.19 0.20 0.23 0.25 0.25 0.24 0.26 0.29 0.30 0.30 0.29 0.28 0.27 0.25 0.23 0.22 0.21 0.20 0.19 0.18 0.17 0.16
0.07 0.07 0.06 0.06 0.07 0.07 0.07 0.08 0.09 0.10 0.12 0.12 0.12 0.12 0.12 0.12 0.14 0.13 0.12 0.12 0.14 0.17 0.17 0.18 0.21 0.22 0.22 0.23 0.25 0.27 0.27 0.28 0.28 0.27 0.25 0.24 0.22 0.21 0.20 0.19 0.18 0.17 0.16 0.15
0.06 0.05 0.05 0.05 0.05 0.05 0.06 0.06 0.06 0.06 0.08 0.10 0.11 0.11 0.12 0.13 0.13 0.13 0.13 0.13 0.14 0.16 0.17 0.16 0.17 0.19 0.21 0.22 0.23 0.23 0.23 0.23 0.23 0.22 0.21 0.21 0.20 0.18 0.17 0.16 0.15 0.15 0.14 0.13
0.04 0.04 0.04 0.04 0.04 0.04 0.04 0.05 0.05 0.06 0.06 0.07 0.09 0.10 0.12 0.12 0.12 0.12 0.12 0.13 0.14 0.15 0.15 0.15 0.15 0.17 0.18 0.19 0.19 0.19 0.18 0.18 0.17 0.17 0.17 0.17 0.16 0.15 0.14 0.14 0.14 0.13 0.13 0.12

GEFSNGP_prec_meanprecacc_096.txt.gz
Total_Precipitation_Accumulation
0.23 0.29 0.44 0.38 0.21 0.20 0.33 0.25 0.24 0.13 0.13 0.16 0.16 0.20 0.20 0.17 0.13 0.10 0.09 0.09 0.10 0.10 0.09 0.11 0.12 0.14 0.15 0.17 0.20 0.24 0.25 0.23 0.21 0.22 0.22 0.22 0.20 0.18 0.17 0.17 0.16 0.17 0.19 0.21
0.29 0.27 0.38 0.31 0.15 0.13 0.14 0.11 0.11 0.10 0.13 0.13 0.17 0.22 0.25 0.21 0.14 0.08 0.07 0.06 0.05 0.06 0.06 0.06 0.09 0.14 0.18 0.20 0.26 0.30 0.31 0.26 0.22 0.22 0.20 0.19 0.18 0.17 0.15 0.14 0.13 0.14 0.16 0.18
0.48 0.24 0.28 0.24 0.13 0.13 0.11 0.08 0.09 0.13 0.12 0.12 0.20 0.24 0.22 0.16 0.10 0.06 0.05 0.05 0.04 0.04 0.04 0.05 0.08 0.16 0.23 0.28 0.34 0.35 0.38 0.35 0.30 0.27 0.24 0.19 0.17 0.19 0.21 0.22 0.23 0.24 0.25 0.27
0.59 0.38 0.37 0.24 0.17 0.15 0.12 0.08 0.06 0.07 0.07 0.08 0.13 0.15 0.13 0.10 0.08 0.05 0.03 0.03 0.03 0.03 0.03 0.04 0.08 0.16 0.24 0.31 0.42 0.44 0.43 0.42 0.41 0.41 0.40 0.40 0.40 0.41 0.42 0.42 0.43 0.46 0.49 0.50
0.41 0.32 0.17 0.09 0.10 0.12 0.13 0.10 0.05 0.04 0.04 0.03 0.06 0.12 0.16 0.14 0.10 0.07 0.04 0.02 0.02 0.02 0.03 0.04 0.07 0.13 0.21 0.33 0.48 0.58 0.62 0.59 0.60 0.63 0.67 0.70 0.72 0.71 0.71 0.73 0.72 0.70 0.67 0.61
0.27 0.22 0.10 0.04 0.02 0.03 0.05 0.08 0.02 0.02 0.02 0.02 0.04 0.09 0.16 0.17 0.13 0.11 0.09 0.07 0.05 0.05 0.06 0.09 0.12 0.18 0.30 0.46 0.60 0.70 0.72 0.74 0.76 0.81 0.86 0.84 0.82 0.78 0.70 0.65 0.65 0.63 0.61 0.57
0.21 0.19 0.04 0.01 0.00 0.01 0.05 0.08 0.02 0.01 0.01 0.01 0.02 0.05 0.06 0.11 0.15 0.14 0.15 0.17 0.17 0.18 0.20 0.22 0.25 0.34 0.47 0.58 0.66 0.69 0.69 0.69 0.71 0.69 0.68 0.65 0.63 0.59 0.53 0.47 0.42 0.37 0.34 0.30
0.09 0.13 0.06 0.01 0.01 0.02 0.03 0.01 0.01 0.01 0.01 0.02 0.02 0.02 0.03 0.04 0.08 0.12 0.16 0.22 0.29 0.34 0.37 0.37 0.40 0.46 0.52 0.54 0.54 0.52 0.49 0.47 0.43 0.38 0.33 0.31 0.31 0.31 0.28 0.26 0.22 0.19 0.15 0.14
0.05 0.07 0.03 0.01 0.01 0.02 0.01 0.02 0.01 0.01 0.01 0.02 0.02 0.02 0.02 0.02 0.03 0.05 0.07 0.09 0.14 0.20 0.24 0.25 0.25 0.27 0.29 0.26 0.23 0.19 0.16 0.14 0.13 0.10 0.09 0.08 0.08 0.08 0.09 0.11 0.11 0.10 0.10 0.09
0.04 0.04 0.02 0.02 0.02 0.02 0.02 0.02 0.02 0.02 0.03 0.03 0.03 0.03 0.03 0.02 0.02 0.03 0.03 0.03 0.04 0.06 0.07 0.07 0.08 0.08 0.09 0.07 0.05 0.04 0.03 0.03 0.03 0.03 0.03 0.03 0.04 0.04 0.05 0.06 0.08 0.08 0.09 0.09
0.04 0.03 0.02 0.02 0.02 0.01 0.01 0.01 0.02 0.02 0.02 0.03 0.04 0.04 0.04 0.04 0.03 0.03 0.03 0.03 0.04 0.04 0.04 0.04 0.04 0.05 0.05 0.05 0.04 0.04 0.03 0.03 0.03 0.03 0.04 0.04 0.04 0.04 0.05 0.06 0.08 0.09 0.10 0.10
0.06 0.03 0.02 0.01 0.01 0.01 0.01 0.01 0.01 0.02 0.02 0.02 0.02 0.04 0.03 0.03 0.04 0.04 0.05 0.04 0.04 0.04 0.05 0.06 0.06 0.07 0.07 0.07 0.08 0.07 0.07 0.06 0.07 0.07 0.07 0.07 0.07 0.07 0.09 0.09 0.11 0.12 0.12 0.13
0.03 0.02 0.02 0.01 0.00 0.00 0.01 0.01 0.02 0.01 0.01 0.01 0.01 0.01 0.02 0.03 0.04 0.04 0.05 0.06 0.06 0.06 0.07 0.06 0.06 0.07 0.08 0.10 0.11 0.12 0.12 0.13 0.14 0.13 0.13 0.12 0.12 0.12 0.12 0.13 0.15 0.15 0.15 0.16
0.01 0.02 0.02 0.01 0.01 0.01 0.01 0.02 0.02 0.01 0.01 0.01 0.01 0.01 0.01 0.01 0.03 0.04 0.05 0.06 0.06 0.06 0.06 0.06 0.07 0.07 0.08 0.09 0.10 0.11 0.13 0.17 0.20 0.19 0.20 0.20 0.19 0.18 0.18 0.18 0.18 0.17 0.17 0.20
0.01 0.02 0.03 0.04 0.03 0.02 0.02 0.02 0.02 0.02 0.03 0.02 0.03 0.02 0.02 0.02 0.02 0.03 0.04 0.04 0.05 0.06 0.05 0.06 0.06 0.07 0.08 0.09 0.10 0.11 0.12 0.14 0.17 0.20 0.22 0.23 0.23 0.23 0.22 0.20 0.19 0.17 0.17 0.21
0.04 0.03 0.03 0.04 0.06 0.06 0.05 0.04 0.04 0.04 0.04 0.03 0.04 0.04 0.04 0.03 0.03 0.03 0.03 0.03 0.05 0.05 0.06 0.07 0.08 0.08 0.09 0.10 0.12 0.13 0.13 0.18 0.20 0.19 0.21 0.23 0.24 0.23 0.22 0.20 0.19 0.18 0.17 0.17
0.11 0.09 0.09 0.10 0.08 0.09 0.08 0.07 0.06 0.05 0.05 0.05 0.05 0.04 0.04 0.04 0.03 0.03 0.04 0.04 0.04 0.05 0.06 0.08 0.09 0.10 0.10 0.11 0.13 0.14 0.15 0.19 0.24 0.22 0.19 0.21 0.23 0.24 0.23 0.21 0.20 0.18 0.16 0.19
0.13 0.14 0.14 0.17 0.17 0.15 0.13 0.11 0.09 0.08 0.07 0.07 0.07 0.06 0.05 0.05 0.05 0.05 0.05 0.05 0.05 0.06 0.07 0.08 0.09 0.10 0.10 0.11 0.15 0.16 0.17 0.19 0.21 0.21 0.22 0.24 0.26 0.26 0.26 0.25 0.23 0.22 0.21 0.25
0.13 0.13 0.13 0.15 0.18 0.18 0.17 0.15 0.14 0.13 0.11 0.10 0.09 0.08 0.08 0.07 0.07 0.06 0.06 0.07 0.07 0.08 0.07 0.08 0.11 0.11 0.11 0.12 0.17 0.18 0.18 0.19 0.21 0.23 0.25 0.29 0.31 0.28 0.27 0.27 0.27 0.27 0.27 0.28
0.15 0.15 0.15 0.17 0.19 0.19 0.19 0.18 0.17 0.17 0.16 0.14 0.13 0.11 0.10 0.10 0.10 0.09 0.09 0.09 0.09 0.11 0.11 0.12 0.13 0.12 0.12 0.14 0.18 0.19 0.19 0.21 0.22 0.23 0.25 0.28 0.29 0.27 0.27 0.27 0.28 0.28 0.28 0.28
0.19 0.17 0.16 0.17 0.19 0.20 0.19 0.19 0.19 0.20 0.20 0.18 0.17 0.16 0.14 0.13 0.14 0.14 0.13 0.12 0.10 0.11 0.12 0.14 0.13 0.14 0.17 0.20 0.23 0.22 0.22 0.23 0.24 0.25 0.26 0.27 0.27 0.27 0.26 0.26 0.27 0.27 0.27 0.26
0.18 0.18 0.17 0.17 0.19 0.21 0.21 0.20 0.19 0.20 0.19 0.18 0.18 0.17 0.16 0.15 0.14 0.13 0.13 0.14 0.13 0.15 0.16 0.14 0.15 0.20 0.25 0.27 0.24 0.22 0.24 0.26 0.27 0.28 0.28 0.26 0.26 0.25 0.25 0.25 0.26 0.25 0.25 0.25
0.16 0.17 0.16 0.15 0.15 0.15 0.15 0.15 0.16 0.17 0.18 0.18 0.19 0.18 0.18 0.16 0.16 0.16 0.16 0.14 0.14 0.16 0.18 0.17 0.21 0.26 0.28 0.26 0.25 0.26 0.29 0.30 0.29 0.29 0.28 0.27 0.27 0.27 0.26 0.25 0.25 0.24 0.23 0.22
0.10 0.10 0.11 0.10 0.10 0.11 0.12 0.13 0.13 0.14 0.15 0.15 0.15 0.15 0.15 0.14 0.13 0.12 0.13 0.14 0.16 0.19 0.19 0.20 0.24 0.25 0.25 0.25 0.26 0.29 0.31 0.31 0.31 0.30 0.29 0.28 0.26 0.25 0.24 0.23 0.22 0.21 0.20 0.20
0.08 0.07 0.06 0.06 0.07 0.07 0.07 0.08 0.09 0.10 0.12 0.12 0.12 0.12 0.12 0.12 0.14 0.13 0.12 0.12 0.14 0.17 0.17 0.19 0.21 0.22 0.22 0.23 0.26 0.28 0.28 0.29 0.30 0.30 0.28 0.27 0.26 0.24 0.23 0.22 0.22 0.21 0.20 0.19
0.06 0.05 0.05 0.05 0.05 0.05 0.06 0.06 0.06 0.06 0.08 0.10 0.11 0.11 0.12 0.13 0.13 0.13 0.13 0.13 0.14 0.16 0.17 0.17 0.17 0.19 0.21 0.22 0.23 0.24 0.24 0.24 0.24 0.24 0.24 0.24 0.23 0.22 0.21 0.20 0.19 0.19 0.18 0.17
0.04 0.04 0.04 0.04 0.04 0.04 0.04 0.05 0.05 0.06 0.06 0.07 0.09 0.10 0.12 0.12 0.12 0.12 0.12 0.13 0.14 0.15 0.15 0.15 0.16 0.17 0.18 0.19 0.19 0.19 0.19 0.19 0.19 0.19 0.19 0.19 0.19 0.18 0.17 0.17 0.17 0.17 0.17 0.16

GEFSNGP_prec_meanprecacc_102.txt.gz
Total_Precipitation_Accumulation
0.23 0.29 0.44 0.38 0.21 0.20 0.33 0.26 0.25 0.14 0.14 0.17 0.17 0.20 0.21 0.18 0.15 0.12 0.11 0.11 0.13 0.14 0.13 0.15 0.16 0.17 0.18 0.20 0.24 0.28 0.29 0.28 0.27 0.27 0.28 0.29 0.30 0.30 0.30 0.30 0.31 0.33 0.37 0.41
0.29 0.28 0.38 0.31 0.15 0.13 0.14 0.12 0.12 0.10 0.14 0.14 0.18 0.22 0.25 0.22 0.15 0.09 0.08 0.07 0.07 0.08 0.09 0.10 0.12 0.16 0.20 0.23 0.30 0.34 0.36 0.31 0.28 0.27 0.26 0.23 0.22 0.22 0.22 0.23 0.24 0.27 0.31 0.33
0.48 0.24 0.28 0.25 0.14 0.13 0.11 0.09 0.09 0.13 0.13 0.13 0.20 0.24 0.22 0.17 0.10 0.07 0.05 0.05 0.05 0.05 0.06 0.08 0.12 0.19 0.27 0.32 0.39 0.40 0.43 0.38 0.33 0.29 0.27 0.24 0.22 0.23 0.25 0.27 0.29 0.31 0.33 0.36
0.59 0.38 0.37 0.24 0.17 0.15 0.12 0.08 0.06 0.08 0.07 0.08 0.13 0.15 0.13 0.10 0.08 0.05 0.04 0.03 0.03 0.04 0.04 0.05 0.10 0.19 0.28 0.34 0.45 0.47 0.46 0.45 0.43 0.43 0.43 0.44 0.43 0.44 0.45 0.44 0.45 0.49 0.53 0.56
0.41 0.32 0.17 0.09 0.10 0.12 0.13 0.10 0.05 0.05 0.04 0.04 0.06 0.12 0.17 0.14 0.10 0.07 0.04 0.02 0.02 0.02 0.03 0.04 0.07 0.13 0.22 0.34 0.48 0.59 0.64 0.62 0.62 0.65 0.69 0.73 0.74 0.73 0.73 0.75 0.75 0.73 0.70 0.65
0.27 0.22 0.10 0.04 0.02 0.03 0.05 0.08 0.02 0.02 0.02 0.02 0.04 0.09 0.16 0.17 0.13 0.11 0.09 0.07 0.05 0.05 0.06 0.09 0.12 0.18 0.30 0.46 0.60 0.70 0.72 0.75 0.78 0.83 0.89 0.86 0.84 0.80 0.72 0.68 0.67 0.66 0.64 0.61
0.21 0.19 0.04 0.01 0.00 0.01 0.05 0.08 0.02 0.01 0.01 0.01 0.02 0.05 0.06 0.11 0.15 0.14 0.15 0.17 0.17 0.18 0.20 0.22 0.25 0.34 0.47 0.58 0.66 0.69 0.69 0.70 0.71 0.69 0.69 0.67 0.65 0.60 0.55 0.49 0.44 0.39 0.36 0.33
0.09 0.13 0.06 0.01 0.01 0.02 0.03 0.02 0.01 0.01 0.01 0.02 0.02 0.02 0.03 0.04 0.08 0.12 0.16 0.22 0.29 0.34 0.37 0.37 0.40 0.46 0.52 0.54 0.54 0.52 0.49 0.47 0.43 0.38 0.33 0.31 0.32 0.31 0.29 0.27 0.23 0.20 0.17 0.15
0.05 0.07 0.03 0.01 0.01 0.02 0.01 0.02 0.01 0.01 0.01 0.02 0.02 0.02 0.02 0.02 0.03 0.05 0.07 0.09 0.14 0.20 0.24 0.25 0.25 0.27 0.29 0.26 0.23 0.19 0.16 0.14 0.13 0.10 0.09 0.08 0.08 0.08 0.10 0.11 0.12 0.11 0.11 0.11
0.04 0.04 0.02 0.02 0.02 0.02 0.02 0.02 0.02 0.02 0.03 0.03 0.03 0.03 0.03 0.02 0.02 0.03 0.03 0.03 0.04 0.06 0.07 0.07 0.08 0.08 0.09 0.07 0.05 0.04 0.03 0.03 0.03 0.03 0.03 0.03 0.04 0.04 0.05 0.07 0.08 0.10 0.10 0.10
0.04 0.03 0.02 0.02 0.02 0.01 0.01 0.01 0.02 0.02 0.02 0.03 0.04 0.04 0.04 0.04 0.03 0.03 0.03 0.03 0.04 0.04 0.04 0.04 0.04 0.05 0.05 0.05 0.04 0.04 0.03 0.03 0.03 0.03 0.04 0.04 0.04 0.04 0.06 0.06 0.08 0.11 0.12 0.12
0.06 0.03 0.02 0.01 0.01 0.01 0.01 0.01 0.01 0.02 0.02 0.02 0.02 0.04 0.03 0.03 0.04 0.04 0.05 0.04 0.04 0.04 0.05 0.06 0.06 0.07 0.07 0.08 0.08 0.07 0.07 0.06 0.07 0.07 0.07 0.07 0.07 0.07 0.09 0.10 0.12 0.14 0.14 0.15
0.03 0.02 0.02 0.01 0.00 0.00 0.01 0.01 0.02 0.01 0.01 0.01 0.01 0.01 0.02 0.03 0.04 0.04 0.05 0.06 0.06 0.06 0.07 0.06 0.06 0.07 0.08 0.10 0.11 0.12 0.13 0.14 0.14 0.13 0.13 0.12 0.12 0.12 0.12 0.13 0.16 0.16 0.16 0.17
0.01 0.02 0.02 0.01 0.01 0.01 0.01 0.02 0.02 0.01 0.01 0.01 0.01 0.01 0.01 0.01 0.03 0.04 0.05 0.06 0.06 0.06 0.06 0.06 0.07 0.07 0.08 0.09 0.10 0.11 0.13 0.17 0.20 0.19 0.20 0.20 0.20 0.19 0.19 0.20 0.19 0.18 0.19 0.22
0.01 0.02 0.03 0.04 0.03 0.02 0.02 0.02 0.02 0.02 0.03 0.02 0.03 0.02 0.02 0.02 0.02 0.03 0.04 0.04 0.05 0.06 0.05 0.06 0.06 0.07 0.08 0.09 0.10 0.11 0.12 0.14 0.18 0.20 0.22 0.24 0.24 0.24 0.23 0.22 0.20 0.18 0.19 0.23
0.04 0.03 0.03 0.04 0.06 0.06 0.05 0.04 0.04 0.04 0.04 0.03 0.04 0.04 0.04 0.03 0.03 0.03 0.03 0.03 0.05 0.05 0.06 0.07 0.08 0.08 0.09 0.10 0.12 0.13 0.13 0.18 0.20 0.20 0.21 0.24 0.25 0.24 0.23 0.22 0.21 0.19 0.18 0.18
0.11 0.09 0.09 0.10 0.08 0.09 0.08 0.07 0.06 0.05 0.05 0.05 0.05 0.04 0.04 0.04 0.03 0.03 0.04 0.04 0.04 0.05 0.06 0.08 0.09 0.10 0.10 0.11 0.13 0.14 0.16 0.19 0.24 0.22 0.20 0.22 0.24 0.25 0.24 0.23 0.22 0.20 0.17 0.21
0.13 0.14 0.14 0.17 0.17 0.15 0.13 0.11 0.09 0.08 0.07 0.07 0.07 0.06 0.05 0.05 0.05 0.05 0.05 0.05 0.05 0.06 0.07 0.08 0.09 0.10 0.10 0.11 0.15 0.17 0.18 0.19 0.21 0.22 0.22 0.24 0.27 0.27 0.28 0.27 0.25 0.24 0.23 0.26
0.13 0.13 0.13 0.15 0.18 0.18 0.17 0.15 0.14 0.13 0.11 0.10 0.09 0.08 0.08 0.07 0.07 0.06 0.06 0.07 0.07 0.08 0.07 0.08 0.11 0.11 0.11 0.12 0.18 0.18 0.19 0.20 0.21 0.23 0.25 0.30 0.32 0.29 0.29 0.29 0.29 0.29 0.29 0.30
0.15 0.15 0.15 0.17 0.19 0.19 0.19 0.18 0.17 0.17 0.16 0.15 0.13 0.12 0.10 0.10 0.10 0.09 0.09 0.09 0.09 0.11 0.11 0.12 0.13 0.12 0.12 0.14 0.19 0.19 0.20 0.21 0.23 0.24 0.26 0.28 0.30 0.29 0.28 0.28 0.29 0.30 0.31 0.30
0.19 0.17 0.16 0.17 0.19 0.20 0.19 0.19 0.19 0.20 0.20 0.18 0.17 0.16 0.14 0.13 0.14 0.14 0.13 0.12 0.10 0.11 0.12 0.14 0.13 0.14 0.17 0.21 0.24 0.22 0.22 0.24 0.24 0.26 0.27 0.28 0.28 0.28 0.27 0.28 0.28 0.29 0.29 0.29
0.18 0.18 0.17 0.17 0.19 0.22 0.21 0.20 0.19 0.20 0.19 0.18 0.18 0.17 0.16 0.15 0.14 0.13 0.13 0.14 0.13 0.15 0.16 0.14 0.15 0.20 0.26 0.28 0.24 0.23 0.24 0.26 0.28 0.29 0.28 0.27 0.27 0.26 0.26 0.27 0.28 0.27 0.27 0.28
0.16 0.17 0.16 0.15 0.15 0.15 0.15 0.15 0.16 0.17 0.18 0.18 0.19 0.18 0.18 0.16 0.16 0.16 0.16 0.14 0.14 0.16 0.18 0.17 0.21 0.27 0.29 0.27 0.25 0.27 0.29 0.30 0.30 0.30 0.29 0.29 0.28 0.28 0.28 0.27 0.27 0.27 0.26 0.25
0.10 0.10 0.11 0.10 0.10 0.11 0.12 0.13 0.13 0.14 0.15 0.15 0.15 0.15 0.15 0.14 0.13 0.12 0.13 0.14 0.16 0.19 0.19 0.20 0.24 0.26 0.26 0.25 0.26 0.30 0.31 0.32 0.31 0.31 0.30 0.29 0.28 0.28 0.27 0.26 0.25 0.24 0.23 0.23
0.08 0.07 0.06 0.07 0.07 0.07 0.07 0.08 0.09 0.10 0.12 0.12 0.12 0.12 0.12 0.12 0.14 0.13 0.12 0.12 0.14 0.17 0.17 0.19 0.21 0.22 0.23 0.23 0.26 0.28 0.29 0.30 0.31 0.31 0.29 0.28 0.27 0.26 0.25 0.24 0.25 0.24 0.22 0.22
0.06 0.06 0.05 0.05 0.05 0.05 0.06 0.06 0.06 0.06 0.08 0.10 0.11 0.11 0.12 0.13 0.13 0.13 0.13 0.13 0.14 0.16 0.17 0.17 0.17 0.19 0.21 0.22 0.23 0.24 0.24 0.24 0.25 0.24 0.24 0.25 0.25 0.23 0.22 0.22 0.22 0.22 0.21 0.21
0.04 0.04 0.04 0.04 0.04 0.04 0.04 0.05 0.05 0.06 0.06 0.07 0.09 0.10 0.12 0.12 0.12 0.12 0.12 0.13 0.14 0.15 0.15 0.15 0.16 0.17 0.18 0.19 0.20 0.19 0.19 0.19 0.19 0.19 0.20 0.20 0.20 0.19 0.19 0.19 0.20 0.20 0.20 0.20

GEFSNGP_prec_meanprecacc_108.txt.gz
Total_Precipitation_Accumulation
0.23 0.29 0.44 0.38 0.22 0.20 0.33 0.26 0.25 0.15 0.15 0.18 0.18 0.21 0.22 0.19 0.16 0.13 0.12 0.12 0.15 0.16 0.15 0.16 0.18 0.19 0.20 0.22 0.28 0.32 0.33 0.32 0.31 0.31 0.33 0.35 0.37 0.37 0.36 0.37 0.39 0.42 0.46 0.53
0.29 0.28 0.38 0.31 0.15 0.13 0.15 0.12 0.12 0.11 0.15 0.15 0.18 0.23 0.26 0.23 0.16 0.10 0.09 0.09 0.09 0.10 0.11 0.12 0.14 0.18 0.22 0.26 0.35 0.39 0.40 0.35 0.32 0.31 0.30 0.28 0.27 0.28 0.28 0.29 0.31 0.34 0.38 0.42
0.48 0.24 0.28 0.25 0.14 0.13 0.12 0.09 0.09 0.13 0.13 0.13 0.21 0.25 0.22 0.17 0.11 0.07 0.06 0.06 0.07 0.07 0.08 0.11 0.15 0.23 0.30 0.35 0.43 0.45 0.47 0.42 0.35 0.32 0.30 0.26 0.24 0.25 0.27 0.29 0.32 0.35 0.37 0.41
0.59 0.38 0.37 0.24 0.17 0.15 0.12 0.09 0.06 0.08 0.07 0.09 0.13 0.15 0.13 0.10 0.08 0.06 0.04 0.03 0.04 0.05 0.05 0.07 0.12 0.21 0.29 0.36 0.48 0.50 0.50 0.47 0.44 0.44 0.44 0.45 0.45 0.45 0.46 0.45 0.47 0.51 0.56 0.58
0.41 0.32 0.17 0.09 0.10 0.12 0.13 0.10 0.05 0.05 0.04 0.04 0.06 0.12 0.17 0.14 0.10 0.07 0.04 0.03 0.02 0.03 0.04 0.04 0.07 0.14 0.22 0.34 0.49 0.61 0.66 0.64 0.64 0.66 0.70 0.73 0.75 0.75 0.75 0.77 0.76 0.74 0.71 0.67
0.27 0.22 0.10 0.04 0.02 0.03 0.05 0.08 0.02 0.02 0.02 0.02 0.04 0.09 0.16 0.17 0.13 0.11 0.09 0.07 0.05 0.05 0.06 0.09 0.12 0.18 0.30 0.46 0.60 0.70 0.73 0.76 0.79 0.84 0.90 0.87 0.85 0.81 0.74 0.69 0.69 0.67 0.66 0.63
0.21 0.19 0.04 0.01 0.00 0.01 0.05 0.08 0.02 0.01 0.01 0.01 0.02 0.05 0.06 0.11 0.15 0.14 0.15 0.17 0.17 0.18 0.20 0.22 0.25 0.34 0.47 0.58 0.66 0.69 0.69 0.70 0.72 0.70 0.70 0.68 0.66 0.62 0.56 0.51 0.46 0.41 0.38 0.35
0.09 0.13 0.06 0.01 0.01 0.02 0.03 0.02 0.01 0.01 0.01 0.02 0.02 0.02 0.03 0.04 0.08 0.12 0.16 0.22 0.29 0.34 0.37 0.37 0.40 0.46 0.52 0.54 0.54 0.52 0.49 0.47 0.44 0.38 0.33 0.32 0.32 0.32 0.30 0.28 0.25 0.22 0.19 0.18
0.05 0.07 0.03 0.01 0.01 0.02 0.01 0.02 0.01 0.01 0.01 0.02 0.02 0.02 0.02 0.02 0.03 0.05 0.07 0.09 0.14 0.20 0.24 0.25 0.25 0.27 0.29 0.26 0.23 0.19 0.16 0.14 0.13 0.10 0.09 0.08 0.08 0.08 0.10 0.12 0.13 0.12 0.12 0.12
0.04 0.04 0.02 0.02 0.02 0.02 0.02 0.02 0.02 0.02 0.03 0.03 0.03 0.03 0.03 0.02 0.02 0.03 0.03 0.03 0.04 0.06 0.07 0.07 0.08 0.08 0.09 0.07 0.05 0.04 0.03 0.03 0.03 0.03 0.03 0.03 0.04 0.04 0.05 0.07 0.09 0.10 0.11 0.11
0.04 0.03 0.02 0.02 0.02 0.01 0.01 0.01 0.02 0.02 0.02 0.03 0.04 0.04 0.04 0.04 0.03 0.03 0.03 0.03 0.04 0.04 0.04 0.04 0.04 0.05 0.05 0.05 0.04 0.04 0.03 0.03 0.03 0.03 0.04 0.04 0.04 0.04 0.06 0.06 0.09 0.12 0.13 0.14
0.06 0.03 0.02 0.01 0.01 0.01 0.01 0.01 0.01 0.02 0.02 0.02 0.02 0.04 0.03 0.03 0.04 0.04 0.05 0.04 0.04 0.04 0.05 0.06 0.06 0.07 0.07 0.08 0.08 0.07 0.07 0.06 0.07 0.07 0.07 0.07 0.07 0.07 0.09 0.10 0.12 0.14 0.15 0.16
0.03 0.02 0.02 0.01 0.00 0.00 0.01 0.01 0.02 0.01 0.01 0.01 0.01 0.01 0.02 0.03 0.04 0.04 0.05 0.06 0.06 0.06 0.07 0.06 0.06 0.07 0.08 0.10 0.11 0.12 0.13 0.14 0.14 0.13 0.13 0.12 0.12 0.13 0.13 0.14 0.16 0.16 0.16 0.18
0.01 0.02 0.02 0.01 0.01 0.01 0.01 0.02 0.02 0.01 0.01 0.01 0.01 0.01 0.01 0.01 0.03 0.04 0.05 0.06 0.06 0.06 0.06 0.06 0.07 0.07 0.08 0.09 0.10 0.11 0.13 0.18 0.20 0.19 0.20 0.21 0.20 0.20 0.20 0.20 0.19 0.18 0.19 0.22
0.01 0.02 0.03 0.04 0.03 0.02 0.02 0.02 0.02 0.02 0.03 0.02 0.03 0.02 0.02 0.02 0.02 0.03 0.04 0.04 0.05 0.06 0.05 0.06 0.06 0.07 0.08 0.09 0.10 0.11 0.12 0.15 0.18 0.20 0.22 0.24 0.24 0.24 0.24 0.22 0.21 0.19 0.19 0.23
0.04 0.03 0.03 0.04 0.06 0.06 0.05 0.04 0.04 0.04 0.04 0.03 0.04 0.04 0.04 0.03 0.03 0.03 0.03 0.03 0.05 0.05 0.06 0.07 0.08 0.08 0.09 0.10 0.12 0.13 0.13 0.18 0.20 0.20 0.22 0.24 0.25 0.25 0.24 0.22 0.21 0.19 0.18 0.19
0.11 0.09 0.09 0.10 0.08 0.09 0.08 0.07 0.06 0.05 0.05 0.05 0.05 0.04 0.04 0.04 0.03 0.03 0.04 0.04 0.04 0.05 0.06 0.08 0.09 0.10 0.10 0.11 0.13 0.14 0.16 0.19 0.24 0.22 0.20 0.22 0.24 0.25 0.24 0.24 0.22 0.20 0.18 0.21
0.13 0.14 0.14 0.17 0.17 0.15 0.13 0.11 0.09 0.08 0.07 0.07 0.07 0.06 0.05 0.05 0.05 0.05 0.05 0.05 0.06 0.06 0.07 0.08 0.09 0.10 0.10 0.11 0.15 0.17 0.18 0.19 0.21 0.22 0.23 0.25 0.28 0.28 0.28 0.28 0.26 0.25 0.23 0.27
0.13 0.13 0.13 0.15 0.18 0.18 0.17 0.15 0.14 0.13 0.11 0.10 0.09 0.08 0.08 0.07 0.07 0.06 0.06 0.07 0.07 0.08 0.07 0.08 0.11 0.11 0.11 0.12 0.18 0.18 0.19 0.20 0.21 0.23 0.26 0.30 0.33 0.29 0.29 0.30 0.29 0.30 0.30 0.30
0.15 0.15 0.15 0.17 0.19 0.19 0.19 0.18 0.17 0.17 0.16 0.15 0.13 0.12 0.10 0.10 0.10 0.09 0.09 0.09 0.09 0.11 0.11 0.12 0.13 0.12 0.12 0.14 0.19 0.20 0.20 0.21 0.23 0.24 0.26 0.29 0.30 0.29 0.29 0.29 0.30 0.31 0.31 0.31
0.19 0.17 0.16 0.17 0.19 0.20 0.20 0.19 0.19 0.20 0.20 0.18 0.17 0.16 0.14 0.13 0.14 0.14 0.13 0.12 0.10 0.11 0.12 0.14 0.14 0.14 0.17 0.22 0.24 0.22 0.22 0.24 0.25 0.26 0.28 0.28 0.29 0.28 0.28 0.28 0.29 0.30 0.30 0.30
0.18 0.18 0.17 0.17 0.19 0.22 0.21 0.20 0.20 0.20 0.19 0.18 0.18 0.17 0.16 0.15 0.14 0.13 0.13 0.14 0.13 0.15 0.16 0.14 0.15 0.20 0.26 0.28 0.25 0.23 0.24 0.26 0.28 0.29 0.29 0.28 0.27 0.27 0.27 0.28 0.29 0.28 0.29 0.29
0.16 0.17 0.16 0.15 0.15 0.15 0.15 0.15 0.16 0.17 0.18 0.18 0.19 0.18 0.18 0.16 0.16 0.16 0.16 0.14 0.14 0.16 0.18 0.17 0.21 0.27 0.30 0.27 0.25 0.27 0.29 0.30 0.30 0.30 0.30 0.29 0.29 0.29 0.29 0.29 0.28 0.28 0.28 0.27
0.10 0.10 0.11 0.10 0.10 0.11 0.12 0.13 0.13 0.14 0.15 0.15 0.15 0.15 0.15 0.14 0.13 0.12 0.13 0.14 0.16 0.19 0.19 0.20 0.24 0.26 0.26 0.25 0.26 0.30 0.31 0.32 0.32 0.31 0.30 0.29 0.28 0.28 0.28 0.27 0.26 0.25 0.25 0.25
0.08 0.07 0.06 0.07 0.07 0.07 0.07 0.08 0.09 0.10 0.12 0.12 0.12 0.12 0.12 0.12 0.14 0.13 0.12 0.12 0.14 0.17 0.17 0.19 0.21 0.22 0.23 0.23 0.26 0.28 0.29 0.30 0.31 0.31 0.30 0.29 0.28 0.27 0.26 0.25 0.26 0.25 0.24 0.24
0.06 0.06 0.05 0.05 0.05 0.05 0.06 0.06 0.06 0.06 0.08 0.10 0.11 0.11 0.12 0.13 0.13 0.13 0.13 0.13 0.14 0.16 0.17 0.17 0.17 0.19 0.21 0.22 0.23 0.24 0.24 0.24 0.25 0.25 0.25 0.25 0.25 0.24 0.23 0.23 0.23 0.23 0.23 0.23
0.04 0.04 0.04 0.04 0.04 0.04 0.05 0.05 0.05 0.06 0.06 0.07 0.09 0.10 0.12 0.12 0.13 0.12 0.12 0.13 0.14 0.15 0.15 0.15 0.16 0.17 0.18 0.19 0.20 0.19 0.19 0.19 0.19 0.20 0.20 0.21 0.20 0.20 0.19 0.20 0.21 0.21 0.22 0.22

GEFSNGP_prec_meanprecacc_114.txt.gz
Total_Precipitation_Accumulation
0.23 0.29 0.44 0.38 0.22 0.20 0.34 0.26 0.26 0.15 0.16 0.18 0.18 0.22 0.22 0.20 0.16 0.13 0.12 0.13 0.15 0.16 0.15 0.16 0.18 0.19 0.20 0.22 0.28 0.33 0.34 0.33 0.32 0.32 0.34 0.36 0.38 0.39 0.38 0.39 0.40 0.44 0.50 0.57
0.29 0.28 0.38 0.31 0.15 0.13 0.15 0.12 0.12 0.11 0.15 0.15 0.19 0.23 0.26 0.23 0.16 0.11 0.09 0.09 0.10 0.11 0.12 0.12 0.14 0.18 0.22 0.27 0.35 0.39 0.42 0.37 0.33 0.33 0.32 0.30 0.29 0.30 0.30 0.32 0.34 0.37 0.42 0.46
0.48 0.24 0.28 0.25 0.14 0.13 0.12 0.09 0.09 0.13 0.13 0.13 0.21 0.25 0.23 0.17 0.11 0.07 0.06 0.07 0.07 0.07 0.09 0.11 0.16 0.23 0.31 0.36 0.43 0.45 0.47 0.42 0.36 0.33 0.32 0.29 0.27 0.27 0.29 0.32 0.35 0.39 0.41 0.45
0.59 0.38 0.37 0.24 0.17 0.15 0.12 0.09 0.06 0.08 0.07 0.09 0.13 0.15 0.13 0.10 0.09 0.06 0.04 0.04 0.04 0.05 0.06 0.07 0.13 0.22 0.30 0.37 0.48 0.51 0.50 0.47 0.45 0.44 0.45 0.47 0.47 0.48 0.49 0.48 0.50 0.54 0.58 0.61
0.42 0.32 0.17 0.09 0.10 0.12 0.13 0.10 0.05 0.05 0.04 0.04 0.06 0.12 0.17 0.14 0.10 0.07 0.04 0.03 0.02 0.03 0.04 0.05 0.08 0.14 0.23 0.35 0.50 0.61 0.67 0.65 0.65 0.67 0.70 0.74 0.77 0.76 0.76 0.78 0.77 0.75 0.72 0.68
0.27 0.23 0.10 0.04 0.02 0.03 0.05 0.08 0.02 0.02 0.02 0.02 0.04 0.09 0.16 0.17 0.13 0.11 0.09 0.07 0.05 0.05 0.06 0.09 0.12 0.18 0.30 0.46 0.61 0.71 0.74 0.77 0.80 0.85 0.90 0.87 0.86 0.82 0.75 0.71 0.70 0.68 0.66 0.63
0.22 0.19 0.04 0.01 0.00 0.01 0.05 0.08 0.02 0.01 0.01 0.01 0.02 0.05 0.06 0.11 0.15 0.14 0.15 0.17 0.17 0.18 0.20 0.22 0.25 0.34 0.47 0.58 0.66 0.69 0.69 0.70 0.73 0.71 0.71 0.69 0.66 0.62 0.57 0.52 0.47 0.42 0.39 0.36
0.10 0.13 0.06 0.01 0.01 0.02 0.03 0.02 0.01 0.01 0.01 0.02 0.02 0.02 0.03 0.04 0.08 0.12 0.16 0.22 0.29 0.34 0.37 0.37 0.40 0.46 0.52 0.54 0.54 0.52 0.49 0.47 0.44 0.39 0.34 0.33 0.33 0.33 0.32 0.29 0.26 0.23 0.20 0.18
0.05 0.07 0.03 0.01 0.01 0.02 0.01 0.02 0.01 0.01 0.01 0.02 0.02 0.02 0.02 0.02 0.03 0.05 0.07 0.09 0.14 0.20 0.24 0.25 0.25 0.27 0.29 0.26 0.23 0.19 0.16 0.14 0.13 0.10 0.09 0.08 0.08 0.09 0.11 0.13 0.14 0.13 0.12 0.13
0.04 0.04 0.02 0.02 0.02 0.02 0.02 0.02 0.02 0.02 0.03 0.03 0.03 0.03 0.03 0.02 0.02 0.03 0.03 0.03 0.04 0.06 0.07 0.07 0.08 0.08 0.09 0.07 0.05 0.04 0.03 0.03 0.03 0.03 0.03 0.03 0.04 0.04 0.05 0.07 0.09 0.10 0.11 0.12
0.04 0.03 0.02 0.02 0.02 0.01 0.01 0.01 0.02 0.02 0.02 0.03 0.04 0.04 0.04 0.04 0.03 0.03 0.03 0.03 0.04 0.04 0.04 0.04 0.04 0.05 0.05 0.05 0.04 0.04 0.03 0.03 0.03 0.03 0.04 0.04 0.04 0.04 0.06 0.06 0.09 0.12 0.13 0.14
0.06 0.03 0.02 0.01 0.01 0.01 0.01 0.01 0.01 0.02 0.02 0.02 0.02 0.04 0.03 0.03 0.04 0.04 0.05 0.04 0.04 0.04 0.05 0.06 0.06 0.07 0.07 0.08 0.08 0.07 0.07 0.06 0.07 0.07 0.07 0.07 0.07 0.07 0.09 0.10 0.12 0.14 0.15 0.16
0.03 0.02 0.02 0.01 0.00 0.00 0.01 0.01 0.02 0.01 0.01 0.01 0.01 0.01 0.02 0.03 0.04 0.04 0.05 0.06 0.06 0.06 0.07 0.06 0.06 0.07 0.08 0.10 0.11 0.12 0.13 0.14 0.14 0.13 0.13 0.12 0.12 0.13 0.13 0.14 0.16 0.16 0.16 0.18
0.01 0.02 0.02 0.01 0.01 0.01 0.01 0.02 0.02 0.01 0.01 0.01 0.01 0.01 0.01 0.01 0.03 0.04 0.05 0.06 0.06 0.06 0.06 0.06 0.07 0.07 0.08 0.09 0.10 0.11 0.13 0.18 0.20 0.19 0.20 0.21 0.20 0.20 0.20 0.20 0.19 0.18 0.19 0.22
0.01 0.02 0.03 0.04 0.03 0.02 0.02 0.02 0.02 0.02 0.03 0.02 0.03 0.02 0.02 0.02 0.02 0.03 0.04 0.04 0.05 0.06 0.05 0.06 0.06 0.07 0.08 0.09 0.10 0.11 0.12 0.15 0.18 0.20 0.22 0.24 0.24 0.24 0.24 0.22 0.21 0.19 0.19 0.23
0.04 0.03 0.03 0.04 0.06 0.06 0.05 0.04 0.04 0.04 0.04 0.03 0.04 0.04 0.04 0.03 0.03 0.03 0.03 0.03 0.05 0.05 0.06 0.07 0.08 0.08 0.09 0.10 0.12 0.13 0.13 0.18 0.20 0.20 0.22 0.24 0.25 0.25 0.24 0.22 0.21 0.20 0.18 0.19
0.11 0.09 0.09 0.10 0.08 0.09 0.08 0.07 0.06 0.05 0.05 0.05 0.05 0.04 0.04 0.04 0.03 0.03 0.04 0.04 0.04 0.05 0.06 0.08 0.09 0.10 0.10 0.11 0.13 0.15 0.16 0.19 0.24 0.22 0.20 0.22 0.24 0.25 0.25 0.24 0.23 0.20 0.18 0.21
0.13 0.14 0.14 0.17 0.17 0.15 0.13 0.11 0.09 0.08 0.07 0.07 0.07 0.06 0.05 0.05 0.05 0.05 0.05 0.05 0.06 0.06 0.07 0.08 0.09 0.10 0.10 0.11 0.15 0.17 0.18 0.19 0.21 0.22 0.23 0.25 0.28 0.28 0.29 0.28 0.26 0.25 0.24 0.27
0.13 0.13 0.13 0.15 0.18 0.18 0.17 0.15 0.14 0.13 0.11 0.10 0.09 0.08 0.08 0.07 0.07 0.06 0.06 0.07 0.07 0.08 0.07 0.08 0.11 0.12 0.11 0.13 0.18 0.18 0.19 0.20 0.21 0.23 0.26 0.30 0.33 0.29 0.30 0.30 0.30 0.30 0.30 0.31
0.15 0.15 0.15 0.17 0.19 0.19 0.19 0.18 0.17 0.17 0.16 0.15 0.13 0.12 0.10 0.10 0.10 0.09 0.09 0.09 0.09 0.11 0.11 0.12 0.13 0.12 0.12 0.14 0.19 0.20 0.20 0.21 0.23 0.24 0.26 0.29 0.30 0.29 0.29 0.29 0.30 0.31 0.32 0.32
0.19 0.17 0.16 0.17 0.19 0.20 0.20 0.19 0.19 0.20 0.20 0.18 0.17 0.16 0.14 0.13 0.14 0.14 0.13 0.12 0.10 0.11 0.12 0.14 0.14 0.14 0.17 0.22 0.24 0.22 0.23 0.24 0.25 0.26 0.28 0.29 0.29 0.28 0.28 0.28 0.29 0.30 0.31 0.31
0.18 0.18 0.17 0.17 0.19 0.22 0.21 0.20 0.20 0.20 0.19 0.18 0.18 0.17 0.16 0.15 0.14 0.13 0.13 0.14 0.13 0.15 0.16 0.14 0.15 0.20 0.26 0.29 0.25 0.23 0.24 0.26 0.28 0.29 0.29 0.28 0.27 0.27 0.27 0.28 0.29 0.29 0.29 0.30
0.16 0.17 0.16 0.15 0.15 0.15 0.15 0.15 0.16 0.17 0.18 0.19 0.19 0.18 0.18 0.17 0.16 0.16 0.16 0.14 0.14 0.16 0.18 0.17 0.21 0.27 0.30 0.27 0.25 0.27 0.29 0.30 0.30 0.30 0.30 0.29 0.29 0.29 0.29 0.29 0.29 0.29 0.28 0.28
0.10 0.10 0.11 0.10 0.10 0.11 0.12 0.13 0.13 0.14 0.15 0.16 0.15 0.15 0.15 0.14 0.13 0.12 0.13 0.14 0.16 0.19 0.19 0.20 0.24 0.26 0.26 0.25 0.26 0.30 0.31 0.32 0.32 0.31 0.30 0.29 0.29 0.29 0.28 0.27 0.27 0.25 0.25 0.26
0.08 0.07 0.06 0.07 0.07 0.07 0.07 0.08 0.09 0.10 0.12 0.13 0.12 0.12 0.12 0.13 0.14 0.14 0.12 0.12 0.14 0.17 0.18 0.19 0.21 0.22 0.23 0.23 0.26 0.28 0.29 0.30 0.31 0.31 0.30 0.29 0.28 0.27 0.26 0.26 0.26 0.26 0.25 0.24
0.06 0.06 0.05 0.05 0.05 0.05 0.06 0.06 0.06 0.07 0.08 0.10 0.11 0.11 0.13 0.14 0.14 0.14 0.14 0.14 0.14 0.16 0.17 0.17 0.18 0.19 0.21 0.22 0.23 0.24 0.24 0.24 0.25 0.25 0.25 0.25 0.25 0.24 0.23 0.23 0.23 0.24 0.24 0.24
0.04 0.04 0.04 0.04 0.04 0.05 0.05 0.05 0.05 0.06 0.06 0.08 0.10 0.11 0.12 0.13 0.13 0.13 0.13 0.13 0.14 0.15 0.15 0.15 0.16 0.17 0.18 0.19 0.20 0.19 0.19 0.19 0.19 0.20 0.20 0.21 0.21 0.20 0.20 0.20 0.21 0.22 0.23 0.22